Observation data for Happy on 12/09/2018      Previous  Date       Current Mesonet Observations  Soil Data  Daily Summary Page  Observations in Plain Language
KHA2 090600Z 27005KT M03/M04 A303 RMK A01 T10301040  RH  093%=      5-min Rain = 0
KHA2 090601Z 27005KT M03/M04 A303 RMK A01 T10301039  RH  093%=      5-min Rain = 0
KHA2 090602Z 27006KT M03/M04 A303 RMK A01 T10301040  RH  093%=      5-min Rain = 0
KHA2 090603Z 27005KT M03/M04 A303 RMK A01 T10301040  RH  093%=      5-min Rain = 0
KHA2 090604Z 27005KT M03/M04 A303 RMK A01 T10301040  RH  093%=      5-min Rain = 0
KHA2 090605Z 27005KT M03/M04 A303 RMK A01 T10301040  RH  093%=      5-min Rain = 0
KHA2 090606Z 27005KT M03/M04 A303 RMK A01 T10301040  RH  093%=      5-min Rain = 0
KHA2 090607Z 27004KT M03/M04 A303 RMK A01 T10301040  RH  093%=      5-min Rain = 0
KHA2 090608Z 27004KT M03/M04 A303 RMK A01 T10301040  RH  093%=      5-min Rain = 0
KHA2 090609Z 27004KT M03/M04 A303 RMK A01 T10301040  RH  093%=      5-min Rain = 0
KHA2 090610Z 27004KT M03/M04 A303 RMK A01 T10301040  RH  093%=      5-min Rain = 0
KHA2 090611Z 27004KT M03/M04 A303 RMK A01 T10301040  RH  093%=      5-min Rain = 0
KHA2 090612Z 27004KT M03/M04 A303 RMK A01 T10301040  RH  093%=      5-min Rain = 0
KHA2 090613Z 27005KT M03/M04 A303 RMK A01 T10291039  RH  093%=      5-min Rain = 0
KHA2 090614Z 27005KT M03/M04 A303 RMK A01 T10281038  RH  093%=      5-min Rain = 0
KHA2 090615Z 27005KT M03/M04 A303 RMK A01 T10281038  RH  093%=      5-min Rain = 0
KHA2 090616Z 27005KT M03/M04 A303 RMK A01 T10291039  RH  093%=      5-min Rain = 0
KHA2 090617Z 28004KT M03/M04 A303 RMK A01 T10301040  RH  092%=      5-min Rain = 0
KHA2 090618Z 28004KT M03/M04 A303 RMK A01 T10301041  RH  092%=      5-min Rain = 0
KHA2 090619Z 28004KT M03/M04 A303 RMK A01 T10301042  RH  092%=      5-min Rain = 0
KHA2 090620Z 28004KT M03/M04 A303 RMK A01 T10311042  RH  092%=      5-min Rain = 0
KHA2 090621Z 27003KT M03/M04 A303 RMK A01 T10311042  RH  092%=      5-min Rain = 0
KHA2 090622Z 28003KT M03/M04 A303 RMK A01 T10311042  RH  092%=      5-min Rain = 0
KHA2 090623Z 28003KT M03/M04 A303 RMK A01 T10311043  RH  092%=      5-min Rain = 0
KHA2 090624Z 28004KT M03/M04 A303 RMK A01 T10321044  RH  092%=      5-min Rain = 0
KHA2 090625Z 28004KT M03/M04 A303 RMK A01 T10321043  RH  092%=      5-min Rain = 0
KHA2 090626Z 28004KT M03/M04 A303 RMK A01 T10321043  RH  092%=      5-min Rain = 0
KHA2 090627Z 29004KT M03/M04 A303 RMK A01 T10321042  RH  093%=      5-min Rain = 0
KHA2 090628Z 29004KT M03/M04 A303 RMK A01 T10321042  RH  093%=      5-min Rain = 0
KHA2 090629Z 29004KT M03/M04 A303 RMK A01 T10321042  RH  093%=      5-min Rain = 0
KHA2 090630Z 29004KT M03/M04 A303 RMK A01 T10321043  RH  092%=      5-min Rain = 0
KHA2 090631Z 29004KT M03/M05 A303 RMK A01 T10341046  RH  092%=      5-min Rain = 0
KHA2 090632Z 29004KT M04/M05 A303 RMK A01 T10361048  RH  091%=      5-min Rain = 0
KHA2 090633Z 29004KT M04/M05 A303 RMK A01 T10371049  RH  091%=      5-min Rain = 0
KHA2 090634Z 28004KT M04/M05 A303 RMK A01 T10381050  RH  091%=      5-min Rain = 0
KHA2 090635Z 28004KT M04/M05 A303 RMK A01 T10381050  RH  091%=      5-min Rain = 0
KHA2 090636Z 28004KT M04/M05 A303 RMK A01 T10391051  RH  092%=      5-min Rain = 0
KHA2 090637Z 28004KT M04/M05 A303 RMK A01 T10401051  RH  092%=      5-min Rain = 0
KHA2 090638Z 28004KT M04/M05 A303 RMK A01 T10401051  RH  092%=      5-min Rain = 0
KHA2 090639Z 29004KT M04/M05 A303 RMK A01 T10401051  RH  092%=      5-min Rain = 0
KHA2 090640Z 29005KT M04/M05 A303 RMK A01 T10401050  RH  093%=      5-min Rain = 0
KHA2 090641Z 29005KT M04/M05 A303 RMK A01 T10391049  RH  093%=      5-min Rain = 0
KHA2 090642Z 29004KT M04/M05 A303 RMK A01 T10391049  RH  093%=      5-min Rain = 0
KHA2 090643Z 29003KT M04/M05 A303 RMK A01 T10391049  RH  093%=      5-min Rain = 0
KHA2 090644Z 29003KT M04/M05 A303 RMK A01 T10391048  RH  093%=      5-min Rain = 0
KHA2 090645Z 29003KT M04/M05 A303 RMK A01 T10391048  RH  093%=      5-min Rain = 0
KHA2 090646Z 29003KT M04/M05 A303 RMK A01 T10401050  RH  093%=      5-min Rain = 0
KHA2 090647Z 29004KT M04/M05 A303 RMK A01 T10411051  RH  093%=      5-min Rain = 0
KHA2 090648Z 30004KT M04/M05 A303 RMK A01 T10411051  RH  093%=      5-min Rain = 0
KHA2 090649Z 30004KT M04/M05 A303 RMK A01 T10401050  RH  093%=      5-min Rain = 0
KHA2 090650Z 30004KT M04/M05 A303 RMK A01 T10411050  RH  093%=      5-min Rain = 0
KHA2 090651Z 30005KT M04/M05 A303 RMK A01 T10401050  RH  093%=      5-min Rain = 0
KHA2 090652Z 30005KT M04/M05 A303 RMK A01 T10411050  RH  093%=      5-min Rain = 0
KHA2 090653Z 29005KT M04/M05 A303 RMK A01 T10421052  RH  093%=      5-min Rain = 0
KHA2 090654Z 29005KT M04/M05 A303 RMK A01 T10431053  RH  093%=      5-min Rain = 0
KHA2 090655Z 29005KT M04/M05 A303 RMK A01 T10431053  RH  093%=      5-min Rain = 0
KHA2 090656Z 29004KT M04/M05 A303 RMK A01 T10431053  RH  093%=      5-min Rain = 0
KHA2 090657Z 29004KT M04/M05 A303 RMK A01 T10431053  RH  093%=      5-min Rain = 0
KHA2 090658Z 29003KT M04/M05 A303 RMK A01 T10441053  RH  093%=      5-min Rain = 0
KHA2 090659Z 30004KT M04/M05 A303 RMK A01 T10441054  RH  093%=      5-min Rain = 0
KHA2 090700Z 30004KT M04/M05 A303 RMK A01 T10441054  RH  093%=      5-min Rain = 0
KHA2 090701Z 30005KT M05/M06 A3029 RMK A01 T10451055  RH  093%=      5-min Rain = 0
KHA2 090702Z 30005KT M05/M06 A3029 RMK A01 T10451055  RH  093%=      5-min Rain = 0
KHA2 090703Z 30005KT M05/M06 A3029 RMK A01 T10461056  RH  093%=      5-min Rain = 0
KHA2 090704Z 30005KT M05/M06 A3029 RMK A01 T10461056  RH  093%=      5-min Rain = 0
KHA2 090705Z 30005KT M05/M06 A3029 RMK A01 T10461057  RH  092%=      5-min Rain = 0
KHA2 090706Z 30005KT M05/M06 A3029 RMK A01 T10471057  RH  093%=      5-min Rain = 0
KHA2 090707Z 30005KT M05/M06 A3029 RMK A01 T10471057  RH  093%=      5-min Rain = 0
KHA2 090708Z 30006KT M05/M06 A3029 RMK A01 T10461056  RH  093%=      5-min Rain = 0
KHA2 090709Z 30006KT M05/M06 A3029 RMK A01 T10461056  RH  093%=      5-min Rain = 0
KHA2 090710Z 30006KT M05/M06 A3029 RMK A01 T10461056  RH  093%=      5-min Rain = 0
KHA2 090711Z 30006KT M05/M06 A3029 RMK A01 T10461056  RH  093%=      5-min Rain = 0
KHA2 090712Z 30006KT M05/M06 A3029 RMK A01 T10461056  RH  093%=      5-min Rain = 0
KHA2 090713Z 30006KT M05/M06 A3029 RMK A01 T10451055  RH  093%=      5-min Rain = 0
KHA2 090714Z 31006KT M05/M06 A3029 RMK A01 T10451055  RH  093%=      5-min Rain = 0
KHA2 090715Z 30005KT M05/M06 A3029 RMK A01 T10461056  RH  092%=      5-min Rain = 0
KHA2 090716Z 30005KT M05/M06 A3029 RMK A01 T10471058  RH  092%=      5-min Rain = 0
KHA2 090717Z 30006KT M05/M06 A3029 RMK A01 T10471059  RH  092%=      5-min Rain = 0
KHA2 090718Z 30006KT M05/M06 A3029 RMK A01 T10481059  RH  092%=      5-min Rain = 0
KHA2 090719Z 31006KT M05/M06 A3029 RMK A01 T10491060  RH  092%=      5-min Rain = 0
KHA2 090720Z 31006KT M05/M06 A3029 RMK A01 T10491061  RH  092%=      5-min Rain = 0
KHA2 090721Z 31006KT M05/M06 A3029 RMK A01 T10491061  RH  092%=      5-min Rain = 0
KHA2 090722Z 31007KT M05/M06 A3029 RMK A01 T10491060  RH  092%=      5-min Rain = 0
KHA2 090723Z 31007KT M05/M06 A3029 RMK A01 T10491060  RH  092%=      5-min Rain = 0
KHA2 090724Z 31007KT M05/M06 A3029 RMK A01 T10491059  RH  092%=      5-min Rain = 0
KHA2 090725Z 31007KT M05/M06 A3029 RMK A01 T10481058  RH  092%=      5-min Rain = 0
KHA2 090726Z 31007KT M05/M06 A3029 RMK A01 T10471058  RH  093%=      5-min Rain = 0
KHA2 090727Z 31007KT M05/M06 A3029 RMK A01 T10471057  RH  093%=      5-min Rain = 0
KHA2 090728Z 31006KT M05/M06 A3029 RMK A01 T10461056  RH  093%=      5-min Rain = 0
KHA2 090729Z 31006KT M05/M06 A3029 RMK A01 T10461056  RH  092%=      5-min Rain = 0
KHA2 090730Z 31006KT M05/M06 A3029 RMK A01 T10461057  RH  092%=      5-min Rain = 0
KHA2 090731Z 31006KT M05/M06 A3029 RMK A01 T10461058  RH  092%=      5-min Rain = 0
KHA2 090732Z 31007KT M05/M06 A3029 RMK A01 T10471059  RH  091%=      5-min Rain = 0
KHA2 090733Z 31007KT M05/M06 A3029 RMK A01 T10471059  RH  091%=      5-min Rain = 0
KHA2 090734Z 31006KT M05/M06 A3028 RMK A01 T10471058  RH  092%=      5-min Rain = 0
KHA2 090735Z 31006KT M05/M06 A3028 RMK A01 T10471058  RH  092%=      5-min Rain = 0
KHA2 090736Z 31006KT M05/M06 A3028 RMK A01 T10461058  RH  092%=      5-min Rain = 0
KHA2 090737Z 31006KT M05/M06 A3028 RMK A01 T10461058  RH  092%=      5-min Rain = 0
KHA2 090738Z 31006KT M05/M06 A3028 RMK A01 T10471059  RH  091%=      5-min Rain = 0
KHA2 090739Z 30006KT M05/M06 A3028 RMK A01 T10481060  RH  091%=      5-min Rain = 0
KHA2 090740Z 30006KT M05/M06 A3028 RMK A01 T10481060  RH  091%=      5-min Rain = 0
KHA2 090741Z 30006KT M05/M06 A3028 RMK A01 T10481060  RH  091%=      5-min Rain = 0
KHA2 090742Z 30006KT M05/M06 A3028 RMK A01 T10481060  RH  091%=      5-min Rain = 0
KHA2 090743Z 30006KT M05/M06 A3028 RMK A01 T10481060  RH  091%=      5-min Rain = 0
KHA2 090744Z 30006KT M05/M06 A3028 RMK A01 T10491061  RH  091%=      5-min Rain = 0
KHA2 090745Z 30006KT M05/M06 A3028 RMK A01 T10481060  RH  092%=      5-min Rain = 0
KHA2 090746Z 30006KT M05/M06 A3028 RMK A01 T10491060  RH  092%=      5-min Rain = 0
KHA2 090747Z 30006KT M05/M06 A3028 RMK A01 T10491061  RH  092%=      5-min Rain = 0
KHA2 090748Z 30006KT M05/M06 A3028 RMK A01 T10491061  RH  091%=      5-min Rain = 0
KHA2 090749Z 30006KT M05/M06 A3028 RMK A01 T10491061  RH  092%=      5-min Rain = 0
KHA2 090750Z 31006KT M05/M06 A3029 RMK A01 T10491061  RH  092%=      5-min Rain = 0
KHA2 090751Z 31006KT M05/M06 A3029 RMK A01 T10491061  RH  092%=      5-min Rain = 0
KHA2 090752Z 31007KT M05/M06 A3029 RMK A01 T10491060  RH  092%=      5-min Rain = 0
KHA2 090753Z 31007KT M05/M06 A3029 RMK A01 T10481059  RH  092%=      5-min Rain = 0
KHA2 090754Z 31007KT M05/M06 A3029 RMK A01 T10481059  RH  092%=      5-min Rain = 0
KHA2 090755Z 31007KT M05/M06 A3029 RMK A01 T10471059  RH  092%=      5-min Rain = 0
KHA2 090756Z 31007KT M05/M06 A3029 RMK A01 T10471059  RH  092%=      5-min Rain = 0
KHA2 090757Z 31007KT M05/M06 A3029 RMK A01 T10471059  RH  092%=      5-min Rain = 0
KHA2 090758Z 31007KT M05/M06 A3029 RMK A01 T10471059  RH  091%=      5-min Rain = 0
KHA2 090759Z 31007KT M05/M06 A3029 RMK A01 T10471059  RH  091%=      5-min Rain = 0
KHA2 090800Z 31007KT M05/M06 A3029 RMK A01 T10471059  RH  091%=      5-min Rain = 0
KHA2 090801Z 31007KT M05/M06 A3029 RMK A01 T10481060  RH  091%=      5-min Rain = 0
KHA2 090802Z 31007KT M05/M06 A3029 RMK A01 T10481061  RH  091%=      5-min Rain = 0
KHA2 090803Z 31007KT M05/M06 A3029 RMK A01 T10481061  RH  091%=      5-min Rain = 0
KHA2 090804Z 30007KT M05/M06 A3029 RMK A01 T10481060  RH  091%=      5-min Rain = 0
KHA2 090805Z 30006KT M05/M06 A3029 RMK A01 T10481059  RH  091%=      5-min Rain = 0
KHA2 090806Z 30006KT M05/M06 A3029 RMK A01 T10461058  RH  092%=      5-min Rain = 0
KHA2 090807Z 30007KT M05/M06 A3029 RMK A01 T10451056  RH  092%=      5-min Rain = 0
KHA2 090808Z 30006KT M04/M06 A3029 RMK A01 T10441055  RH  092%=      5-min Rain = 0
KHA2 090809Z 30005KT M04/M06 A3029 RMK A01 T10431055  RH  092%=      5-min Rain = 0
KHA2 090810Z 29005KT M04/M06 A3029 RMK A01 T10431055  RH  092%=      5-min Rain = 0
KHA2 090811Z 29004KT M04/M06 A3029 RMK A01 T10431056  RH  091%=      5-min Rain = 0
KHA2 090812Z 29004KT M04/M06 A3029 RMK A01 T10441057  RH  091%=      5-min Rain = 0
KHA2 090813Z 29004KT M04/M06 A3029 RMK A01 T10441058  RH  090%=      5-min Rain = 0
KHA2 090814Z 29003KT M05/M06 A3029 RMK A01 T10451059  RH  090%=      5-min Rain = 0
KHA2 090815Z 30003KT M05/M06 A3029 RMK A01 T10461060  RH  090%=      5-min Rain = 0
KHA2 090816Z 30003KT M05/M06 A3029 RMK A01 T10481063  RH  089%=      5-min Rain = 0
KHA2 090817Z 30003KT M05/M07 A3029 RMK A01 T10501065  RH  089%=      5-min Rain = 0
KHA2 090818Z 30003KT M05/M07 A3029 RMK A01 T10511067  RH  089%=      5-min Rain = 0
KHA2 090819Z 29003KT M05/M07 A3029 RMK A01 T10511066  RH  089%=      5-min Rain = 0
KHA2 090820Z 30003KT M05/M06 A3029 RMK A01 T10511064  RH  090%=      5-min Rain = 0
KHA2 090821Z 30004KT M05/M06 A3029 RMK A01 T10501062  RH  091%=      5-min Rain = 0
KHA2 090822Z 30004KT M05/M06 A3029 RMK A01 T10501062  RH  091%=      5-min Rain = 0
KHA2 090823Z 30004KT M05/M06 A3029 RMK A01 T10501062  RH  091%=      5-min Rain = 0
KHA2 090824Z 30005KT M05/M06 A3029 RMK A01 T10511064  RH  091%=      5-min Rain = 0
KHA2 090825Z 31006KT M05/M06 A3029 RMK A01 T10511064  RH  091%=      5-min Rain = 0
KHA2 090826Z 31006KT M05/M06 A3029 RMK A01 T10511064  RH  091%=      5-min Rain = 0
KHA2 090827Z 31006KT M05/M06 A3029 RMK A01 T10501062  RH  091%=      5-min Rain = 0
KHA2 090828Z 31006KT M05/M06 A3029 RMK A01 T10501061  RH  092%=      5-min Rain = 0
KHA2 090829Z 31006KT M05/M06 A3029 RMK A01 T10491060  RH  092%=      5-min Rain = 0
KHA2 090830Z 31006KT M05/M06 A3029 RMK A01 T10491060  RH  091%=      5-min Rain = 0
KHA2 090831Z 31006KT M05/M06 A3029 RMK A01 T10491061  RH  091%=      5-min Rain = 0
KHA2 090832Z 31006KT M05/M06 A3029 RMK A01 T10491061  RH  091%=      5-min Rain = 0
KHA2 090833Z 31006KT M05/M06 A3029 RMK A01 T10491062  RH  091%=      5-min Rain = 0
KHA2 090834Z 31006KT M05/M06 A3029 RMK A01 T10491062  RH  091%=      5-min Rain = 0
KHA2 090835Z 31007KT M05/M06 A3029 RMK A01 T10501063  RH  090%=      5-min Rain = 0
KHA2 090836Z 30006KT M05/M06 A3029 RMK A01 T10501063  RH  090%=      5-min Rain = 0
KHA2 090837Z 30006KT M05/M06 A3029 RMK A01 T10501063  RH  091%=      5-min Rain = 0
KHA2 090838Z 30006KT M05/M06 A3029 RMK A01 T10491062  RH  091%=      5-min Rain = 0
KHA2 090839Z 31006KT M05/M06 A3029 RMK A01 T10491062  RH  091%=      5-min Rain = 0
KHA2 090840Z 32007KT M05/M06 A3029 RMK A01 T10491062  RH  090%=      5-min Rain = 0
KHA2 090841Z 32007KT M05/M06 A3029 RMK A01 T10491063  RH  090%=      5-min Rain = 0
KHA2 090842Z 32007KT M05/M06 A3029 RMK A01 T10491062  RH  090%=      5-min Rain = 0
KHA2 090843Z 32007KT M05/M06 A3029 RMK A01 T10481061  RH  091%=      5-min Rain = 0
KHA2 090844Z 32007KT M05/M06 A3029 RMK A01 T10481061  RH  090%=      5-min Rain = 0
KHA2 090845Z 32006KT M05/M06 A3029 RMK A01 T10481061  RH  090%=      5-min Rain = 0
KHA2 090846Z 33006KT M05/M06 A3029 RMK A01 T10481062  RH  090%=      5-min Rain = 0
KHA2 090847Z 33006KT M05/M06 A3029 RMK A01 T10491064  RH  089%=      5-min Rain = 0
KHA2 090848Z 32006KT M05/M07 A3029 RMK A01 T10501065  RH  089%=      5-min Rain = 0
KHA2 090849Z 32006KT M05/M07 A3029 RMK A01 T10511066  RH  089%=      5-min Rain = 0
KHA2 090850Z 32006KT M05/M07 A3029 RMK A01 T10521066  RH  089%=      5-min Rain = 0
KHA2 090851Z 33006KT M05/M07 A3029 RMK A01 T10521067  RH  089%=      5-min Rain = 0
KHA2 090852Z 33005KT M05/M07 A3029 RMK A01 T10531067  RH  090%=      5-min Rain = 0
KHA2 090853Z 32005KT M05/M07 A3029 RMK A01 T10531067  RH  090%=      5-min Rain = 0
KHA2 090854Z 32005KT M05/M07 A3029 RMK A01 T10531067  RH  090%=      5-min Rain = 0
KHA2 090855Z 32005KT M05/M07 A3029 RMK A01 T10541068  RH  090%=      5-min Rain = 0
KHA2 090856Z 32005KT M06/M07 A3029 RMK A01 T10551069  RH  090%=      5-min Rain = 0
KHA2 090857Z 32005KT M06/M07 A3029 RMK A01 T10551069  RH  090%=      5-min Rain = 0
KHA2 090858Z 32005KT M06/M07 A3029 RMK A01 T10551069  RH  090%=      5-min Rain = 0
KHA2 090859Z 32005KT M06/M07 A3029 RMK A01 T10561070  RH  090%=      5-min Rain = 0
KHA2 090900Z 32005KT M06/M07 A3029 RMK A01 T10561070  RH  090%=      5-min Rain = 0
KHA2 090901Z 32006KT M06/M07 A3029 RMK A01 T10561070  RH  090%=      5-min Rain = 0
KHA2 090902Z 32006KT M06/M07 A3029 RMK A01 T10571070  RH  090%=      5-min Rain = 0
KHA2 090903Z 32006KT M06/M07 A3029 RMK A01 T10561070  RH  090%=      5-min Rain = 0
KHA2 090904Z 32006KT M06/M07 A3029 RMK A01 T10561069  RH  091%=      5-min Rain = 0
KHA2 090905Z 32005KT M06/M07 A3029 RMK A01 T10561069  RH  091%=      5-min Rain = 0
KHA2 090906Z 32005KT M06/M07 A3029 RMK A01 T10561069  RH  091%=      5-min Rain = 0
KHA2 090907Z 32005KT M06/M07 A3029 RMK A01 T10561069  RH  091%=      5-min Rain = 0
KHA2 090908Z 31005KT M06/M07 A3029 RMK A01 T10561069  RH  091%=      5-min Rain = 0
KHA2 090909Z 32005KT M06/M07 A3029 RMK A01 T10571070  RH  091%=      5-min Rain = 0
KHA2 090910Z 32005KT M06/M07 A3029 RMK A01 T10571069  RH  091%=      5-min Rain = 0
KHA2 090911Z 31005KT M06/M07 A3029 RMK A01 T10561069  RH  091%=      5-min Rain = 0
KHA2 090912Z 31005KT M06/M07 A3029 RMK A01 T10561068  RH  091%=      5-min Rain = 0
KHA2 090913Z 31005KT M06/M07 A3029 RMK A01 T10561068  RH  091%=      5-min Rain = 0
KHA2 090914Z 30005KT M06/M07 A3029 RMK A01 T10561068  RH  091%=      5-min Rain = 0
KHA2 090915Z 30005KT M06/M07 A3029 RMK A01 T10551067  RH  091%=      5-min Rain = 0
KHA2 090916Z 29005KT M05/M07 A3029 RMK A01 T10541066  RH  091%=      5-min Rain = 0
KHA2 090917Z 29005KT M05/M07 A3029 RMK A01 T10541065  RH  091%=      5-min Rain = 0
KHA2 090918Z 29005KT M05/M07 A3029 RMK A01 T10541066  RH  091%=      5-min Rain = 0
KHA2 090919Z 28004KT M05/M07 A3029 RMK A01 T10541067  RH  091%=      5-min Rain = 0
KHA2 090920Z 27003KT M06/M07 A3029 RMK A01 T10561069  RH  090%=      5-min Rain = 0
KHA2 090921Z 26003KT M06/M07 A3029 RMK A01 T10571071  RH  090%=      5-min Rain = 0
KHA2 090922Z 27002KT M06/M07 A3029 RMK A01 T10571070  RH  090%=      5-min Rain = 0
KHA2 090923Z 28003KT M06/M07 A3029 RMK A01 T10571069  RH  091%=      5-min Rain = 0
KHA2 090924Z 29002KT M06/M07 A3029 RMK A01 T10581070  RH  091%=      5-min Rain = 0
KHA2 090925Z 30002KT M06/M07 A3029 RMK A01 T10581071  RH  091%=      5-min Rain = 0
KHA2 090926Z 31002KT M06/M07 A303 RMK A01 T10591071  RH  091%=      5-min Rain = 0
KHA2 090927Z 32003KT M06/M07 A303 RMK A01 T10591072  RH  091%=      5-min Rain = 0
KHA2 090928Z 31005KT M06/M07 A303 RMK A01 T10591070  RH  092%=      5-min Rain = 0
KHA2 090929Z 31006KT M06/M07 A303 RMK A01 T10571068  RH  092%=      5-min Rain = 0
KHA2 090930Z 31007KT M06/M07 A303 RMK A01 T10561067  RH  092%=      5-min Rain = 0
KHA2 090931Z 31007KT M06/M07 A303 RMK A01 T10551065  RH  092%=      5-min Rain = 0
KHA2 090932Z 31006KT M05/M06 A303 RMK A01 T10531063  RH  092%=      5-min Rain = 0
KHA2 090933Z 31007KT M05/M06 A303 RMK A01 T10521063  RH  092%=      5-min Rain = 0
KHA2 090934Z 31007KT M05/M06 A303 RMK A01 T10521064  RH  091%=      5-min Rain = 0
KHA2 090935Z 31007KT M05/M07 A303 RMK A01 T10521065  RH  091%=      5-min Rain = 0
KHA2 090936Z 31007KT M05/M07 A303 RMK A01 T10521065  RH  090%=      5-min Rain = 0
KHA2 090937Z 31007KT M05/M07 A303 RMK A01 T10521066  RH  090%=      5-min Rain = 0
KHA2 090938Z 32007KT M05/M07 A303 RMK A01 T10531067  RH  089%=      5-min Rain = 0
KHA2 090939Z 32007KT M05/M07 A303 RMK A01 T10531068  RH  089%=      5-min Rain = 0
KHA2 090940Z 32006KT M05/M07 A303 RMK A01 T10541069  RH  089%=      5-min Rain = 0
KHA2 090941Z 32006KT M06/M07 A303 RMK A01 T10551070  RH  089%=      5-min Rain = 0
KHA2 090942Z 32005KT M06/M07 A303 RMK A01 T10571072  RH  089%=      5-min Rain = 0
KHA2 090943Z 33005KT M06/M07 A303 RMK A01 T10571073  RH  089%=      5-min Rain = 0
KHA2 090944Z 33005KT M06/M07 A303 RMK A01 T10581073  RH  089%=      5-min Rain = 0
KHA2 090945Z 32006KT M06/M07 A303 RMK A01 T10591074  RH  089%=      5-min Rain = 0
KHA2 090946Z 32006KT M06/M08 A303 RMK A01 T10601075  RH  089%=      5-min Rain = 0
KHA2 090947Z 32006KT M06/M08 A303 RMK A01 T10611076  RH  089%=      5-min Rain = 0
KHA2 090948Z 32006KT M06/M08 A303 RMK A01 T10621076  RH  089%=      5-min Rain = 0
KHA2 090949Z 33006KT M06/M08 A303 RMK A01 T10621077  RH  090%=      5-min Rain = 0
KHA2 090950Z 32006KT M06/M08 A303 RMK A01 T10621076  RH  090%=      5-min Rain = 0
KHA2 090951Z 32006KT M06/M08 A303 RMK A01 T10631076  RH  090%=      5-min Rain = 0
KHA2 090952Z 32006KT M06/M08 A303 RMK A01 T10631075  RH  091%=      5-min Rain = 0
KHA2 090953Z 32006KT M06/M08 A303 RMK A01 T10621075  RH  091%=      5-min Rain = 0
KHA2 090954Z 32005KT M06/M08 A303 RMK A01 T10621075  RH  091%=      5-min Rain = 0
KHA2 090955Z 32006KT M06/M07 A303 RMK A01 T10621074  RH  091%=      5-min Rain = 0
KHA2 090956Z 32006KT M06/M07 A303 RMK A01 T10621074  RH  091%=      5-min Rain = 0
KHA2 090957Z 32006KT M06/M07 A303 RMK A01 T10611073  RH  091%=      5-min Rain = 0
KHA2 090958Z 32005KT M06/M07 A303 RMK A01 T10611073  RH  091%=      5-min Rain = 0
KHA2 090959Z 32005KT M06/M07 A303 RMK A01 T10611073  RH  091%=      5-min Rain = 0
KHA2 091000Z 32005KT M06/M07 A3029 RMK A01 T10611073  RH  091%=      5-min Rain = 0
KHA2 091001Z 32005KT M06/M07 A3029 RMK A01 T10611073  RH  091%=      5-min Rain = 0
KHA2 091002Z 32004KT M06/M07 A3029 RMK A01 T10611073  RH  091%=      5-min Rain = 0
KHA2 091003Z 32004KT M06/M07 A3029 RMK A01 T10601073  RH  091%=      5-min Rain = 0
KHA2 091004Z 31004KT M06/M07 A3029 RMK A01 T10601072  RH  091%=      5-min Rain = 0
KHA2 091005Z 31004KT M06/M07 A3029 RMK A01 T10601073  RH  091%=      5-min Rain = 0
KHA2 091006Z 31004KT M06/M07 A3029 RMK A01 T10601073  RH  091%=      5-min Rain = 0
KHA2 091007Z 31003KT M06/M07 A3029 RMK A01 T10601073  RH  091%=      5-min Rain = 0
KHA2 091008Z 31004KT M06/M07 A3029 RMK A01 T10601074  RH  090%=      5-min Rain = 0
KHA2 091009Z 31004KT M06/M07 A3029 RMK A01 T10611074  RH  090%=      5-min Rain = 0
KHA2 091010Z 31004KT M06/M07 A3029 RMK A01 T10611074  RH  090%=      5-min Rain = 0
KHA2 091011Z 30004KT M06/M08 A3029 RMK A01 T10621075  RH  090%=      5-min Rain = 0
KHA2 091012Z 30004KT M06/M08 A3029 RMK A01 T10621075  RH  090%=      5-min Rain = 0
KHA2 091013Z 31004KT M06/M08 A3029 RMK A01 T10621076  RH  090%=      5-min Rain = 0
KHA2 091014Z 31005KT M06/M08 A3029 RMK A01 T10621076  RH  090%=      5-min Rain = 0
KHA2 091015Z 31005KT M06/M08 A3029 RMK A01 T10631076  RH  090%=      5-min Rain = 0
KHA2 091016Z 31005KT M06/M08 A3029 RMK A01 T10631076  RH  091%=      5-min Rain = 0
KHA2 091017Z 31006KT M06/M08 A3029 RMK A01 T10631076  RH  091%=      5-min Rain = 0
KHA2 091018Z 31007KT M06/M08 A3029 RMK A01 T10631075  RH  091%=      5-min Rain = 0
KHA2 091019Z 31007KT M06/M07 A3029 RMK A01 T10621074  RH  091%=      5-min Rain = 0
KHA2 091020Z 31007KT M06/M07 A3029 RMK A01 T10611072  RH  092%=      5-min Rain = 0
KHA2 091021Z 31007KT M06/M07 A3029 RMK A01 T10591070  RH  092%=      5-min Rain = 0
KHA2 091022Z 31007KT M06/M07 A3029 RMK A01 T10581069  RH  092%=      5-min Rain = 0
KHA2 091023Z 31007KT M06/M07 A3029 RMK A01 T10571069  RH  092%=      5-min Rain = 0
KHA2 091024Z 31007KT M06/M07 A3029 RMK A01 T10561069  RH  091%=      5-min Rain = 0
KHA2 091025Z 31007KT M06/M07 A3029 RMK A01 T10561069  RH  091%=      5-min Rain = 0
KHA2 091026Z 31007KT M06/M07 A3029 RMK A01 T10561069  RH  091%=      5-min Rain = 0
KHA2 091027Z 31007KT M06/M07 A3029 RMK A01 T10561069  RH  090%=      5-min Rain = 0
KHA2 091028Z 31007KT M06/M07 A3029 RMK A01 T10551069  RH  090%=      5-min Rain = 0
KHA2 091029Z 31007KT M06/M07 A3029 RMK A01 T10551069  RH  090%=      5-min Rain = 0
KHA2 091030Z 31007KT M06/M07 A3029 RMK A01 T10561071  RH  089%=      5-min Rain = 0
KHA2 091031Z 31007KT M06/M07 A3029 RMK A01 T10561071  RH  089%=      5-min Rain = 0
KHA2 091032Z 31007KT M06/M07 A3029 RMK A01 T10561071  RH  090%=      5-min Rain = 0
KHA2 091033Z 31008KT M06/M07 A3029 RMK A01 T10561070  RH  090%=      5-min Rain = 0
KHA2 091034Z 31008KT M06/M07 A3029 RMK A01 T10551069  RH  090%=      5-min Rain = 0
KHA2 091035Z 31008KT M06/M07 A3029 RMK A01 T10551069  RH  090%=      5-min Rain = 0
KHA2 091036Z 31008KT M06/M07 A3029 RMK A01 T10551069  RH  090%=      5-min Rain = 0
KHA2 091037Z 31008KT M05/M07 A3029 RMK A01 T10541068  RH  090%=      5-min Rain = 0
KHA2 091038Z 31008KT M05/M07 A3029 RMK A01 T10541068  RH  090%=      5-min Rain = 0
KHA2 091039Z 31007KT M05/M07 A3029 RMK A01 T10541068  RH  090%=      5-min Rain = 0
KHA2 091040Z 31007KT M05/M07 A3029 RMK A01 T10541069  RH  090%=      5-min Rain = 0
KHA2 091041Z 31007KT M05/M07 A3029 RMK A01 T10541069  RH  090%=      5-min Rain = 0
KHA2 091042Z 32007KT M06/M07 A3029 RMK A01 T10551069  RH  090%=      5-min Rain = 0
KHA2 091043Z 32007KT M06/M07 A3029 RMK A01 T10551069  RH  090%=      5-min Rain = 0
KHA2 091044Z 32006KT M06/M07 A3029 RMK A01 T10551069  RH  090%=      5-min Rain = 0
KHA2 091045Z 32006KT M06/M07 A3029 RMK A01 T10561070  RH  090%=      5-min Rain = 0
KHA2 091046Z 32006KT M06/M07 A3029 RMK A01 T10551070  RH  090%=      5-min Rain = 0
KHA2 091047Z 32006KT M06/M07 A3029 RMK A01 T10561070  RH  090%=      5-min Rain = 0
KHA2 091048Z 32006KT M06/M07 A3029 RMK A01 T10561071  RH  090%=      5-min Rain = 0
KHA2 091049Z 32006KT M06/M07 A3029 RMK A01 T10571071  RH  090%=      5-min Rain = 0
KHA2 091050Z 32006KT M06/M07 A3029 RMK A01 T10571071  RH  090%=      5-min Rain = 0
KHA2 091051Z 32006KT M06/M07 A3029 RMK A01 T10571071  RH  090%=      5-min Rain = 0
KHA2 091052Z 32006KT M06/M07 A3029 RMK A01 T10571070  RH  090%=      5-min Rain = 0
KHA2 091053Z 32006KT M06/M07 A3029 RMK A01 T10571071  RH  090%=      5-min Rain = 0
KHA2 091054Z 32006KT M06/M07 A3029 RMK A01 T10571071  RH  090%=      5-min Rain = 0
KHA2 091055Z 32006KT M06/M07 A3029 RMK A01 T10571072  RH  090%=      5-min Rain = 0
KHA2 091056Z 32006KT M06/M07 A3029 RMK A01 T10571072  RH  090%=      5-min Rain = 0
KHA2 091057Z 32005KT M06/M07 A3029 RMK A01 T10571071  RH  090%=      5-min Rain = 0
KHA2 091058Z 32005KT M06/M07 A3029 RMK A01 T10581072  RH  090%=      5-min Rain = 0
KHA2 091059Z 32005KT M06/M07 A3029 RMK A01 T10581072  RH  090%=      5-min Rain = 0
KHA2 091100Z 32005KT M06/M07 A3029 RMK A01 T10581072  RH  090%=      5-min Rain = 0
KHA2 091101Z 32005KT M06/M07 A3029 RMK A01 T10591073  RH  090%=      5-min Rain = 0
KHA2 091102Z 32005KT M06/M07 A3029 RMK A01 T10591073  RH  090%=      5-min Rain = 0
KHA2 091103Z 33005KT M06/M07 A3029 RMK A01 T10591073  RH  090%=      5-min Rain = 0
KHA2 091104Z 33005KT M06/M07 A3029 RMK A01 T10601074  RH  090%=      5-min Rain = 0
KHA2 091105Z 33005KT M06/M07 A3029 RMK A01 T10591073  RH  090%=      5-min Rain = 0
KHA2 091106Z 33004KT M06/M07 A3029 RMK A01 T10591073  RH  090%=      5-min Rain = 0
KHA2 091107Z 32004KT M06/M07 A3029 RMK A01 T10601074  RH  090%=      5-min Rain = 0
KHA2 091108Z 32004KT M06/M07 A3029 RMK A01 T10601074  RH  090%=      5-min Rain = 0
KHA2 091109Z 32005KT M06/M08 A3029 RMK A01 T10611075  RH  090%=      5-min Rain = 0
KHA2 091110Z 32005KT M06/M07 A3029 RMK A01 T10601074  RH  090%=      5-min Rain = 0
KHA2 091111Z 32005KT M06/M08 A3029 RMK A01 T10611075  RH  090%=      5-min Rain = 0
KHA2 091112Z 32005KT M06/M08 A3029 RMK A01 T10611075  RH  090%=      5-min Rain = 0
KHA2 091113Z 32005KT M06/M08 A3029 RMK A01 T10611075  RH  090%=      5-min Rain = 0
KHA2 091114Z 33005KT M06/M08 A3029 RMK A01 T10611075  RH  090%=      5-min Rain = 0
KHA2 091115Z 33005KT M06/M08 A3029 RMK A01 T10611075  RH  090%=      5-min Rain = 0
KHA2 091116Z 33005KT M06/M08 A3029 RMK A01 T10611075  RH  090%=      5-min Rain = 0
KHA2 091117Z 33004KT M06/M08 A3029 RMK A01 T10621076  RH  090%=      5-min Rain = 0
KHA2 091118Z 33004KT M06/M08 A3029 RMK A01 T10631077  RH  090%=      5-min Rain = 0
KHA2 091119Z 33004KT M06/M08 A3029 RMK A01 T10641079  RH  089%=      5-min Rain = 0
KHA2 091120Z 33004KT M06/M08 A3029 RMK A01 T10641079  RH  089%=      5-min Rain = 0
KHA2 091121Z 33004KT M07/M08 A3029 RMK A01 T10651079  RH  090%=      5-min Rain = 0
KHA2 091122Z 33004KT M07/M08 A3029 RMK A01 T10651078  RH  090%=      5-min Rain = 0
KHA2 091123Z 33004KT M07/M08 A3029 RMK A01 T10651078  RH  090%=      5-min Rain = 0
KHA2 091124Z 33004KT M06/M08 A3029 RMK A01 T10641077  RH  091%=      5-min Rain = 0
KHA2 091125Z 33004KT M06/M08 A3029 RMK A01 T10641077  RH  090%=      5-min Rain = 0
KHA2 091126Z 33004KT M06/M08 A3029 RMK A01 T10641078  RH  090%=      5-min Rain = 0
KHA2 091127Z 33005KT M06/M08 A3029 RMK A01 T10641078  RH  090%=      5-min Rain = 0
KHA2 091128Z 33005KT M06/M08 A3029 RMK A01 T10641076  RH  091%=      5-min Rain = 0
KHA2 091129Z 33006KT M06/M08 A3029 RMK A01 T10631076  RH  091%=      5-min Rain = 0
KHA2 091130Z 33006KT M06/M08 A3029 RMK A01 T10631076  RH  091%=      5-min Rain = 0
KHA2 091131Z 33006KT M06/M08 A3029 RMK A01 T10631077  RH  090%=      5-min Rain = 0
KHA2 091132Z 33006KT M07/M08 A3029 RMK A01 T10651079  RH  090%=      5-min Rain = 0
KHA2 091133Z 33006KT M07/M08 A3029 RMK A01 T10651080  RH  089%=      5-min Rain = 0
KHA2 091134Z 32006KT M07/M08 A3029 RMK A01 T10651079  RH  090%=      5-min Rain = 0
KHA2 091135Z 32006KT M07/M08 A3029 RMK A01 T10651079  RH  090%=      5-min Rain = 0
KHA2 091136Z 32006KT M07/M08 A3029 RMK A01 T10651079  RH  090%=      5-min Rain = 0
KHA2 091137Z 32006KT M07/M08 A3029 RMK A01 T10651079  RH  090%=      5-min Rain = 0
KHA2 091138Z 32006KT M07/M08 A3029 RMK A01 T10651078  RH  090%=      5-min Rain = 0
KHA2 091139Z 33007KT M07/M08 A303 RMK A01 T10651078  RH  090%=      5-min Rain = 0
KHA2 091140Z 33007KT M07/M08 A303 RMK A01 T10651078  RH  090%=      5-min Rain = 0
KHA2 091141Z 32007KT M07/M08 A303 RMK A01 T10651078  RH  090%=      5-min Rain = 0
KHA2 091142Z 32007KT M07/M08 A303 RMK A01 T10651078  RH  090%=      5-min Rain = 0
KHA2 091143Z 32007KT M07/M08 A303 RMK A01 T10651078  RH  090%=      5-min Rain = 0
KHA2 091144Z 32007KT M06/M08 A303 RMK A01 T10641077  RH  091%=      5-min Rain = 0
KHA2 091145Z 32007KT M06/M08 A303 RMK A01 T10631076  RH  091%=      5-min Rain = 0
KHA2 091146Z 32007KT M06/M08 A303 RMK A01 T10621075  RH  091%=      5-min Rain = 0
KHA2 091147Z 32007KT M06/M08 A303 RMK A01 T10621075  RH  090%=      5-min Rain = 0
KHA2 091148Z 32007KT M06/M08 A303 RMK A01 T10621075  RH  090%=      5-min Rain = 0
KHA2 091149Z 32006KT M06/M08 A303 RMK A01 T10611075  RH  090%=      5-min Rain = 0
KHA2 091150Z 32006KT M06/M07 A303 RMK A01 T10611074  RH  090%=      5-min Rain = 0
KHA2 091151Z 32006KT M06/M07 A3029 RMK A01 T10611074  RH  090%=      5-min Rain = 0
KHA2 091152Z 32006KT M06/M08 A3029 RMK A01 T10611075  RH  090%=      5-min Rain = 0
KHA2 091153Z 33006KT M06/M07 A3029 RMK A01 T10601074  RH  090%=      5-min Rain = 0
KHA2 091154Z 33006KT M06/M07 A3029 RMK A01 T10601074  RH  090%=      5-min Rain = 0
KHA2 091155Z 33006KT M06/M07 A3029 RMK A01 T10601074  RH  090%=      5-min Rain = 0
KHA2 091156Z 32006KT M06/M08 A3029 RMK A01 T10601075  RH  089%=      5-min Rain = 0
KHA2 091157Z 32007KT M06/M08 A3029 RMK A01 T10601075  RH  089%=      5-min Rain = 0
KHA2 091158Z 32007KT M06/M08 A303 RMK A01 T10601076  RH  089%=      5-min Rain = 0
KHA2 091159Z 32007KT M06/M08 A303 RMK A01 T10611076  RH  089%=      5-min Rain = 0
KHA2 091200Z 32007KT M06/M08 A303 RMK A01 T10611075  RH  089%=      5-min Rain = 0
KHA2 091201Z 32007KT M06/M07 A303 RMK A01 T10601074  RH  090%=      5-min Rain = 0
KHA2 091202Z 32006KT M06/M07 A303 RMK A01 T10591074  RH  090%=      5-min Rain = 0
KHA2 091203Z 32007KT M06/M07 A303 RMK A01 T10591074  RH  090%=      5-min Rain = 0
KHA2 091204Z 32007KT M06/M07 A303 RMK A01 T10591073  RH  090%=      5-min Rain = 0
KHA2 091205Z 32007KT M06/M07 A303 RMK A01 T10581073  RH  089%=      5-min Rain = 0
KHA2 091206Z 32007KT M06/M07 A303 RMK A01 T10581073  RH  089%=      5-min Rain = 0
KHA2 091207Z 32007KT M06/M07 A303 RMK A01 T10581073  RH  089%=      5-min Rain = 0
KHA2 091208Z 32007KT M06/M07 A303 RMK A01 T10581073  RH  089%=      5-min Rain = 0
KHA2 091209Z 32007KT M06/M07 A303 RMK A01 T10571072  RH  089%=      5-min Rain = 0
KHA2 091210Z 32007KT M06/M07 A303 RMK A01 T10571072  RH  089%=      5-min Rain = 0
KHA2 091211Z 32007KT M06/M07 A303 RMK A01 T10561072  RH  089%=      5-min Rain = 0
KHA2 091212Z 32007KT M06/M07 A303 RMK A01 T10561072  RH  089%=      5-min Rain = 0
KHA2 091213Z 32007KT M06/M07 A303 RMK A01 T10561072  RH  089%=      5-min Rain = 0
KHA2 091214Z 32007KT M06/M07 A303 RMK A01 T10561071  RH  089%=      5-min Rain = 0
KHA2 091215Z 32007KT M06/M07 A303 RMK A01 T10551071  RH  089%=      5-min Rain = 0
KHA2 091216Z 31006KT M06/M07 A303 RMK A01 T10551071  RH  088%=      5-min Rain = 0
KHA2 091217Z 32006KT M06/M07 A303 RMK A01 T10551072  RH  088%=      5-min Rain = 0
KHA2 091218Z 32006KT M06/M07 A303 RMK A01 T10551072  RH  088%=      5-min Rain = 0
KHA2 091219Z 32007KT M06/M07 A303 RMK A01 T10551072  RH  088%=      5-min Rain = 0
KHA2 091220Z 32007KT M06/M07 A303 RMK A01 T10551072  RH  088%=      5-min Rain = 0
KHA2 091221Z 32007KT M06/M07 A303 RMK A01 T10551072  RH  088%=      5-min Rain = 0
KHA2 091222Z 32007KT M06/M07 A303 RMK A01 T10551073  RH  087%=      5-min Rain = 0
KHA2 091223Z 32007KT M06/M07 A303 RMK A01 T10551073  RH  087%=      5-min Rain = 0
KHA2 091224Z 32007KT M06/M07 A303 RMK A01 T10551073  RH  087%=      5-min Rain = 0
KHA2 091225Z 32007KT M06/M07 A303 RMK A01 T10551073  RH  088%=      5-min Rain = 0
KHA2 091226Z 32007KT M06/M07 A303 RMK A01 T10551072  RH  088%=      5-min Rain = 0
KHA2 091227Z 32008KT M06/M07 A3031 RMK A01 T10551072  RH  088%=      5-min Rain = 0
KHA2 091228Z 33008KT M05/M07 A3031 RMK A01 T10541072  RH  087%=      5-min Rain = 0
KHA2 091229Z 32007KT M06/M07 A3031 RMK A01 T10551072  RH  087%=      5-min Rain = 0
KHA2 091230Z 32007KT M06/M07 A3031 RMK A01 T10551072  RH  087%=      5-min Rain = 0
KHA2 091231Z 32007KT M05/M07 A3031 RMK A01 T10541072  RH  087%=      5-min Rain = 0
KHA2 091232Z 32007KT M06/M07 A3031 RMK A01 T10551072  RH  087%=      5-min Rain = 0
KHA2 091233Z 32006KT M06/M07 A3031 RMK A01 T10551073  RH  087%=      5-min Rain = 0
KHA2 091234Z 32006KT M06/M07 A3031 RMK A01 T10551074  RH  087%=      5-min Rain = 0
KHA2 091235Z 32006KT M06/M07 A3031 RMK A01 T10561074  RH  087%=      5-min Rain = 0
KHA2 091236Z 32006KT M06/M07 A3031 RMK A01 T10561074  RH  087%=      5-min Rain = 0
KHA2 091237Z 32006KT M06/M08 A3031 RMK A01 T10571075  RH  087%=      5-min Rain = 0
KHA2 091238Z 32006KT M06/M08 A3031 RMK A01 T10571075  RH  087%=      5-min Rain = 0
KHA2 091239Z 33006KT M06/M08 A3031 RMK A01 T10571075  RH  087%=      5-min Rain = 0
KHA2 091240Z 33005KT M06/M08 A3031 RMK A01 T10571075  RH  087%=      5-min Rain = 0
KHA2 091241Z 33005KT M06/M08 A3031 RMK A01 T10571076  RH  087%=      5-min Rain = 0
KHA2 091242Z 33006KT M06/M08 A3031 RMK A01 T10581076  RH  087%=      5-min Rain = 0
KHA2 091243Z 33006KT M06/M08 A3031 RMK A01 T10591078  RH  087%=      5-min Rain = 0
KHA2 091244Z 33005KT M06/M08 A3031 RMK A01 T10601078  RH  087%=      5-min Rain = 0
KHA2 091245Z 33006KT M06/M08 A3031 RMK A01 T10601078  RH  087%=      5-min Rain = 0
KHA2 091246Z 33006KT M06/M08 A3031 RMK A01 T10601078  RH  087%=      5-min Rain = 0
KHA2 091247Z 33007KT M06/M08 A3031 RMK A01 T10611079  RH  087%=      5-min Rain = 0
KHA2 091248Z 33007KT M06/M08 A3031 RMK A01 T10611079  RH  087%=      5-min Rain = 0
KHA2 091249Z 33007KT M06/M08 A3031 RMK A01 T10611079  RH  087%=      5-min Rain = 0
KHA2 091250Z 33007KT M06/M08 A3031 RMK A01 T10611078  RH  088%=      5-min Rain = 0
KHA2 091251Z 33007KT M06/M08 A3031 RMK A01 T10611078  RH  088%=      5-min Rain = 0
KHA2 091252Z 33006KT M06/M08 A3031 RMK A01 T10611078  RH  088%=      5-min Rain = 0
KHA2 091253Z 33007KT M06/M08 A3032 RMK A01 T10611078  RH  088%=      5-min Rain = 0
KHA2 091254Z 33006KT M06/M08 A3032 RMK A01 T10611078  RH  088%=      5-min Rain = 0
KHA2 091255Z 33006KT M06/M08 A3032 RMK A01 T10611078  RH  088%=      5-min Rain = 0
KHA2 091256Z 33006KT M06/M08 A3032 RMK A01 T10611078  RH  088%=      5-min Rain = 0
KHA2 091257Z 33006KT M06/M08 A3032 RMK A01 T10611078  RH  088%=      5-min Rain = 0
KHA2 091258Z 33006KT M06/M08 A3032 RMK A01 T10601077  RH  088%=      5-min Rain = 0
KHA2 091259Z 33006KT M06/M08 A3032 RMK A01 T10611078  RH  088%=      5-min Rain = 0
KHA2 091300Z 33006KT M06/M08 A3032 RMK A01 T10611078  RH  088%=      5-min Rain = 0
KHA2 091301Z 33006KT M06/M08 A3032 RMK A01 T10611078  RH  087%=      5-min Rain = 0
KHA2 091302Z 33006KT M06/M08 A3032 RMK A01 T10611079  RH  088%=      5-min Rain = 0
KHA2 091303Z 33007KT M06/M08 A3032 RMK A01 T10611078  RH  088%=      5-min Rain = 0
KHA2 091304Z 32007KT M06/M08 A3032 RMK A01 T10611079  RH  088%=      5-min Rain = 0
KHA2 091305Z 33007KT M06/M08 A3032 RMK A01 T10611079  RH  088%=      5-min Rain = 0
KHA2 091306Z 33007KT M06/M08 A3032 RMK A01 T10611078  RH  088%=      5-min Rain = 0
KHA2 091307Z 33007KT M06/M08 A3032 RMK A01 T10621079  RH  088%=      5-min Rain = 0
KHA2 091308Z 33006KT M06/M08 A3032 RMK A01 T10621078  RH  088%=      5-min Rain = 0
KHA2 091309Z 33007KT M06/M08 A3032 RMK A01 T10621078  RH  088%=      5-min Rain = 0
KHA2 091310Z 33007KT M06/M08 A3032 RMK A01 T10611079  RH  088%=      5-min Rain = 0
KHA2 091311Z 33006KT M06/M08 A3032 RMK A01 T10621079  RH  088%=      5-min Rain = 0
KHA2 091312Z 33006KT M06/M08 A3032 RMK A01 T10631080  RH  088%=      5-min Rain = 0
KHA2 091313Z 33006KT M06/M08 A3032 RMK A01 T10631079  RH  088%=      5-min Rain = 0
KHA2 091314Z 33006KT M06/M08 A3032 RMK A01 T10621079  RH  088%=      5-min Rain = 0
KHA2 091315Z 33006KT M06/M08 A3032 RMK A01 T10621079  RH  088%=      5-min Rain = 0
KHA2 091316Z 33006KT M06/M08 A3032 RMK A01 T10631080  RH  088%=      5-min Rain = 0
KHA2 091317Z 33006KT M06/M08 A3032 RMK A01 T10631081  RH  088%=      5-min Rain = 0
KHA2 091318Z 33006KT M06/M08 A3032 RMK A01 T10631080  RH  088%=      5-min Rain = 0
KHA2 091319Z 33006KT M06/M08 A3032 RMK A01 T10631080  RH  088%=      5-min Rain = 0
KHA2 091320Z 33006KT M06/M08 A3032 RMK A01 T10631079  RH  088%=      5-min Rain = 0
KHA2 091321Z 33006KT M06/M08 A3032 RMK A01 T10631080  RH  088%=      5-min Rain = 0
KHA2 091322Z 33006KT M06/M08 A3032 RMK A01 T10631080  RH  088%=      5-min Rain = 0
KHA2 091323Z 33006KT M06/M08 A3032 RMK A01 T10631080  RH  088%=      5-min Rain = 0
KHA2 091324Z 33007KT M06/M08 A3032 RMK A01 T10631081  RH  087%=      5-min Rain = 0
KHA2 091325Z 34007KT M06/M08 A3032 RMK A01 T10631080  RH  088%=      5-min Rain = 0
KHA2 091326Z 33007KT M06/M08 A3032 RMK A01 T10631080  RH  088%=      5-min Rain = 0
KHA2 091327Z 33006KT M06/M08 A3033 RMK A01 T10631080  RH  088%=      5-min Rain = 0
KHA2 091328Z 33007KT M06/M08 A3033 RMK A01 T10621079  RH  088%=      5-min Rain = 0
KHA2 091329Z 33007KT M06/M08 A3033 RMK A01 T10621079  RH  088%=      5-min Rain = 0
KHA2 091330Z 33007KT M06/M08 A3033 RMK A01 T10621079  RH  088%=      5-min Rain = 0
KHA2 091331Z 33007KT M06/M08 A3033 RMK A01 T10621079  RH  088%=      5-min Rain = 0
KHA2 091332Z 33007KT M06/M08 A3033 RMK A01 T10611078  RH  088%=      5-min Rain = 0
KHA2 091333Z 33007KT M06/M08 A3033 RMK A01 T10601077  RH  088%=      5-min Rain = 0
KHA2 091334Z 32006KT M06/M08 A3033 RMK A01 T10591077  RH  088%=      5-min Rain = 0
KHA2 091335Z 33006KT M06/M08 A3033 RMK A01 T10591076  RH  088%=      5-min Rain = 0
KHA2 091336Z 33006KT M06/M08 A3033 RMK A01 T10581076  RH  087%=      5-min Rain = 0
KHA2 091337Z 33007KT M06/M08 A3033 RMK A01 T10591077  RH  087%=      5-min Rain = 0
KHA2 091338Z 33007KT M06/M08 A3033 RMK A01 T10591077  RH  087%=      5-min Rain = 0
KHA2 091339Z 33007KT M06/M08 A3033 RMK A01 T10591077  RH  087%=      5-min Rain = 0
KHA2 091340Z 33007KT M06/M08 A3033 RMK A01 T10591077  RH  087%=      5-min Rain = 0
KHA2 091341Z 33007KT M06/M08 A3033 RMK A01 T10591077  RH  087%=      5-min Rain = 0
KHA2 091342Z 33007KT M06/M08 A3033 RMK A01 T10591077  RH  087%=      5-min Rain = 0
KHA2 091343Z 33007KT M06/M08 A3033 RMK A01 T10591077  RH  087%=      5-min Rain = 0
KHA2 091344Z 33008KT M06/M08 A3034 RMK A01 T10591078  RH  087%=      5-min Rain = 0
KHA2 091345Z 33008KT M06/M08 A3034 RMK A01 T10591078  RH  087%=      5-min Rain = 0
KHA2 091346Z 33007KT M06/M08 A3034 RMK A01 T10601078  RH  087%=      5-min Rain = 0
KHA2 091347Z 33007KT M06/M08 A3034 RMK A01 T10601078  RH  087%=      5-min Rain = 0
KHA2 091348Z 33007KT M06/M08 A3034 RMK A01 T10601078  RH  087%=      5-min Rain = 0
KHA2 091349Z 32007KT M06/M08 A3034 RMK A01 T10601078  RH  087%=      5-min Rain = 0
KHA2 091350Z 32007KT M06/M08 A3034 RMK A01 T10601078  RH  087%=      5-min Rain = 0
KHA2 091351Z 32007KT M06/M08 A3034 RMK A01 T10601078  RH  087%=      5-min Rain = 0
KHA2 091352Z 33007KT M06/M08 A3034 RMK A01 T10611079  RH  087%=      5-min Rain = 0
KHA2 091353Z 33006KT M06/M08 A3034 RMK A01 T10611079  RH  087%=      5-min Rain = 0
KHA2 091354Z 33007KT M06/M08 A3034 RMK A01 T10621079  RH  087%=      5-min Rain = 0
KHA2 091355Z 33007KT M06/M08 A3034 RMK A01 T10611079  RH  087%=      5-min Rain = 0
KHA2 091356Z 33007KT M06/M08 A3034 RMK A01 T10611079  RH  087%=      5-min Rain = 0
KHA2 091357Z 33006KT M06/M08 A3034 RMK A01 T10611079  RH  087%=      5-min Rain = 0
KHA2 091358Z 33006KT M06/M08 A3034 RMK A01 T10611079  RH  087%=      5-min Rain = 0
KHA2 091359Z 32006KT M06/M08 A3034 RMK A01 T10611079  RH  087%=      5-min Rain = 0
KHA2 091400Z 32006KT M06/M08 A3034 RMK A01 T10611079  RH  087%=      5-min Rain = 0
KHA2 091401Z 33006KT M06/M08 A3034 RMK A01 T10601079  RH  087%=      5-min Rain = 0
KHA2 091402Z 33006KT M06/M08 A3034 RMK A01 T10611079  RH  087%=      5-min Rain = 0
KHA2 091403Z 32006KT M06/M08 A3034 RMK A01 T10601079  RH  087%=      5-min Rain = 0
KHA2 091404Z 32006KT M06/M08 A3034 RMK A01 T10601079  RH  087%=      5-min Rain = 0
KHA2 091405Z 32006KT M06/M08 A3034 RMK A01 T10601079  RH  087%=      5-min Rain = 0
KHA2 091406Z 33007KT M06/M08 A3034 RMK A01 T10611080  RH  086%=      5-min Rain = 0
KHA2 091407Z 33007KT M06/M08 A3034 RMK A01 T10601079  RH  087%=      5-min Rain = 0
KHA2 091408Z 33007KT M06/M08 A3034 RMK A01 T10591078  RH  086%=      5-min Rain = 0
KHA2 091409Z 33007KT M06/M08 A3034 RMK A01 T10581077  RH  086%=      5-min Rain = 0
KHA2 091410Z 33007KT M06/M08 A3034 RMK A01 T10571077  RH  086%=      5-min Rain = 0
KHA2 091411Z 33007KT M06/M08 A3034 RMK A01 T10561076  RH  086%=      5-min Rain = 0
KHA2 091412Z 33007KT M06/M08 A3034 RMK A01 T10551075  RH  086%=      5-min Rain = 0
KHA2 091413Z 33007KT M05/M07 A3035 RMK A01 T10541074  RH  086%=      5-min Rain = 0
KHA2 091414Z 33007KT M05/M07 A3035 RMK A01 T10531074  RH  085%=      5-min Rain = 0
KHA2 091415Z 33007KT M05/M07 A3035 RMK A01 T10521074  RH  085%=      5-min Rain = 0
KHA2 091416Z 33007KT M05/M07 A3035 RMK A01 T10521073  RH  085%=      5-min Rain = 0
KHA2 091417Z 33006KT M05/M07 A3035 RMK A01 T10511073  RH  085%=      5-min Rain = 0
KHA2 091418Z 33006KT M05/M07 A3035 RMK A01 T10501073  RH  084%=      5-min Rain = 0
KHA2 091419Z 32006KT M05/M07 A3035 RMK A01 T10491072  RH  084%=      5-min Rain = 0
KHA2 091420Z 33006KT M05/M07 A3035 RMK A01 T10501073  RH  084%=      5-min Rain = 0
KHA2 091421Z 33006KT M05/M07 A3035 RMK A01 T10501072  RH  084%=      5-min Rain = 0
KHA2 091422Z 32006KT M05/M07 A3035 RMK A01 T10491072  RH  084%=      5-min Rain = 0
KHA2 091423Z 33006KT M05/M07 A3035 RMK A01 T10491072  RH  084%=      5-min Rain = 0
KHA2 091424Z 33006KT M05/M07 A3035 RMK A01 T10491071  RH  085%=      5-min Rain = 0
KHA2 091425Z 33006KT M05/M07 A3035 RMK A01 T10491070  RH  085%=      5-min Rain = 0
KHA2 091426Z 33006KT M05/M07 A3035 RMK A01 T10481070  RH  085%=      5-min Rain = 0
KHA2 091427Z 33006KT M05/M07 A3035 RMK A01 T10481069  RH  085%=      5-min Rain = 0
KHA2 091428Z 33006KT M05/M07 A3035 RMK A01 T10471069  RH  085%=      5-min Rain = 0
KHA2 091429Z 33007KT M05/M07 A3035 RMK A01 T10461068  RH  085%=      5-min Rain = 0
KHA2 091430Z 33007KT M05/M07 A3035 RMK A01 T10461068  RH  084%=      5-min Rain = 0
KHA2 091431Z 33007KT M05/M07 A3035 RMK A01 T10451068  RH  084%=      5-min Rain = 0
KHA2 091432Z 33007KT M05/M07 A3035 RMK A01 T10451068  RH  084%=      5-min Rain = 0
KHA2 091433Z 32007KT M04/M07 A3035 RMK A01 T10441068  RH  084%=      5-min Rain = 0
KHA2 091434Z 32007KT M04/M07 A3035 RMK A01 T10441067  RH  084%=      5-min Rain = 0
KHA2 091435Z 32006KT M04/M07 A3035 RMK A01 T10431066  RH  084%=      5-min Rain = 0
KHA2 091436Z 32007KT M04/M07 A3035 RMK A01 T10431065  RH  084%=      5-min Rain = 0
KHA2 091437Z 32007KT M04/M06 A3035 RMK A01 T10421064  RH  085%=      5-min Rain = 0
KHA2 091438Z 32006KT M04/M06 A3035 RMK A01 T10411063  RH  085%=      5-min Rain = 0
KHA2 091439Z 32006KT M04/M06 A3035 RMK A01 T10401063  RH  084%=      5-min Rain = 0
KHA2 091440Z 32007KT M04/M06 A3035 RMK A01 T10401063  RH  084%=      5-min Rain = 0
KHA2 091441Z 33006KT M04/M06 A3035 RMK A01 T10391063  RH  084%=      5-min Rain = 0
KHA2 091442Z 33007KT M04/M06 A3035 RMK A01 T10381062  RH  084%=      5-min Rain = 0
KHA2 091443Z 33006KT M04/M06 A3035 RMK A01 T10381061  RH  084%=      5-min Rain = 0
KHA2 091444Z 33007KT M04/M06 A3035 RMK A01 T10371060  RH  084%=      5-min Rain = 0
KHA2 091445Z 33007KT M04/M06 A3035 RMK A01 T10361060  RH  084%=      5-min Rain = 0
KHA2 091446Z 33007KT M04/M06 A3035 RMK A01 T10351059  RH  083%=      5-min Rain = 0
KHA2 091447Z 33006KT M04/M06 A3035 RMK A01 T10351059  RH  084%=      5-min Rain = 0
KHA2 091448Z 33006KT M04/M06 A3035 RMK A01 T10351059  RH  084%=      5-min Rain = 0
KHA2 091449Z 33006KT M03/M06 A3035 RMK A01 T10341058  RH  084%=      5-min Rain = 0
KHA2 091450Z 33006KT M03/M06 A3035 RMK A01 T10341057  RH  084%=      5-min Rain = 0
KHA2 091451Z 34006KT M03/M06 A3035 RMK A01 T10341057  RH  084%=      5-min Rain = 0
KHA2 091452Z 34005KT M03/M06 A3035 RMK A01 T10331056  RH  084%=      5-min Rain = 0
KHA2 091453Z 34005KT M03/M06 A3035 RMK A01 T10331056  RH  084%=      5-min Rain = 0
KHA2 091454Z 33005KT M03/M06 A3035 RMK A01 T10321055  RH  084%=      5-min Rain = 0
KHA2 091455Z 33005KT M03/M05 A3035 RMK A01 T10311054  RH  085%=      5-min Rain = 0
KHA2 091456Z 33006KT M03/M05 A3035 RMK A01 T10311053  RH  085%=      5-min Rain = 0
KHA2 091457Z 33006KT M03/M05 A3035 RMK A01 T10301052  RH  085%=      5-min Rain = 0
KHA2 091458Z 33006KT M03/M05 A3035 RMK A01 T10301052  RH  085%=      5-min Rain = 0
KHA2 091459Z 33006KT M03/M05 A3035 RMK A01 T10291052  RH  084%=      5-min Rain = 0
KHA2 091500Z 34005KT M03/M05 A3035 RMK A01 T10291052  RH  084%=      5-min Rain = 0
KHA2 091501Z 34005KT M03/M05 A3035 RMK A01 T10281051  RH  084%=      5-min Rain = 0
KHA2 091502Z 33005KT M03/M05 A3035 RMK A01 T10271049  RH  085%=      5-min Rain = 0
KHA2 091503Z 34005KT M03/M05 A3035 RMK A01 T10261049  RH  084%=      5-min Rain = 0
KHA2 091504Z 34006KT M03/M05 A3035 RMK A01 T10251049  RH  084%=      5-min Rain = 0
KHA2 091505Z 34005KT M03/M05 A3035 RMK A01 T10251050  RH  082%=      5-min Rain = 0
KHA2 091506Z 33006KT M02/M05 A3035 RMK A01 T10241052  RH  081%=      5-min Rain = 0
KHA2 091507Z 34005KT M02/M05 A3036 RMK A01 T10231051  RH  081%=      5-min Rain = 0
KHA2 091508Z 33006KT M02/M05 A3036 RMK A01 T10231051  RH  081%=      5-min Rain = 0
KHA2 091509Z 33006KT M02/M05 A3036 RMK A01 T10221050  RH  081%=      5-min Rain = 0
KHA2 091510Z 33006KT M02/M05 A3036 RMK A01 T10211049  RH  082%=      5-min Rain = 0
KHA2 091511Z 33005KT M02/M05 A3036 RMK A01 T10211049  RH  081%=      5-min Rain = 0
KHA2 091512Z 33005KT M02/M05 A3036 RMK A01 T10201048  RH  082%=      5-min Rain = 0
KHA2 091513Z 33006KT M02/M05 A3036 RMK A01 T10201047  RH  082%=      5-min Rain = 0
KHA2 091514Z 33005KT M02/M05 A3036 RMK A01 T10201047  RH  081%=      5-min Rain = 0
KHA2 091515Z 33005KT M02/M05 A3036 RMK A01 T10191048  RH  081%=      5-min Rain = 0
KHA2 091516Z 33005KT M02/M05 A3036 RMK A01 T10181046  RH  081%=      5-min Rain = 0
KHA2 091517Z 33005KT M02/M04 A3036 RMK A01 T10181044  RH  082%=      5-min Rain = 0
KHA2 091518Z 34005KT M02/M04 A3036 RMK A01 T10171044  RH  082%=      5-min Rain = 0
KHA2 091519Z 33005KT M02/M05 A3036 RMK A01 T10161045  RH  081%=      5-min Rain = 0
KHA2 091520Z 34005KT M02/M05 A3036 RMK A01 T10161045  RH  081%=      5-min Rain = 0
KHA2 091521Z 33005KT M02/M05 A3036 RMK A01 T10151045  RH  080%=      5-min Rain = 0
KHA2 091522Z 34005KT M02/M05 A3036 RMK A01 T10151045  RH  080%=      5-min Rain = 0
KHA2 091523Z 34005KT M01/M05 A3036 RMK A01 T10141045  RH  080%=      5-min Rain = 0
KHA2 091524Z 34006KT M01/M04 A3036 RMK A01 T10141044  RH  080%=      5-min Rain = 0
KHA2 091525Z 34005KT M01/M05 A3036 RMK A01 T10131045  RH  079%=      5-min Rain = 0
KHA2 091526Z 34004KT M01/M05 A3036 RMK A01 T10121045  RH  078%=      5-min Rain = 0
KHA2 091527Z 34004KT M01/M05 A3036 RMK A01 T10131045  RH  078%=      5-min Rain = 0
KHA2 091528Z 34004KT M01/M04 A3036 RMK A01 T10121042  RH  080%=      5-min Rain = 0
KHA2 091529Z 34004KT M01/M04 A3036 RMK A01 T10111041  RH  080%=      5-min Rain = 0
KHA2 091530Z 34004KT M01/M04 A3036 RMK A01 T10101039  RH  081%=      5-min Rain = 0
KHA2 091531Z 34004KT M01/M04 A3036 RMK A01 T10091039  RH  080%=      5-min Rain = 0
KHA2 091532Z 33005KT M01/M04 A3036 RMK A01 T10091040  RH  079%=      5-min Rain = 0
KHA2 091533Z 34004KT M01/M04 A3037 RMK A01 T10081041  RH  078%=      5-min Rain = 0
KHA2 091534Z 34004KT M01/M04 A3037 RMK A01 T10081041  RH  078%=      5-min Rain = 0
KHA2 091535Z 34004KT M01/M04 A3037 RMK A01 T10071039  RH  079%=      5-min Rain = 0
KHA2 091536Z 34004KT M01/M04 A3037 RMK A01 T10071041  RH  077%=      5-min Rain = 0
KHA2 091537Z 34004KT M01/M04 A3037 RMK A01 T10061041  RH  077%=      5-min Rain = 0
KHA2 091538Z 34003KT M01/M04 A3037 RMK A01 T10061041  RH  077%=      5-min Rain = 0
KHA2 091539Z 34003KT M01/M04 A3037 RMK A01 T10051039  RH  078%=      5-min Rain = 0
KHA2 091540Z 34003KT M01/M04 A3037 RMK A01 T10051039  RH  078%=      5-min Rain = 0
KHA2 091541Z 34003KT M00/M04 A3037 RMK A01 T10041038  RH  078%=      5-min Rain = 0
KHA2 091542Z 34004KT M00/M04 A3037 RMK A01 T10041039  RH  077%=      5-min Rain = 0
KHA2 091543Z 33004KT M00/M04 A3037 RMK A01 T10041040  RH  076%=      5-min Rain = 0
KHA2 091544Z 33003KT M00/M04 A3037 RMK A01 T10031040  RH  077%=      5-min Rain = 0
KHA2 091545Z 33004KT M00/M04 A3037 RMK A01 T10021036  RH  078%=      5-min Rain = 0
KHA2 091546Z 33003KT M00/M04 A3037 RMK A01 T10021036  RH  078%=      5-min Rain = 0
KHA2 091547Z 33004KT M00/M04 A3037 RMK A01 T10011036  RH  077%=      5-min Rain = 0
KHA2 091548Z 33004KT M00/M04 A3037 RMK A01 T10011036  RH  077%=      5-min Rain = 0
KHA2 091549Z 33003KT 00/03 A3037 RMK A01 T00000-32  RH  079%=      5-min Rain = 0
KHA2 091550Z 33003KT 00/M03 A3037 RMK A01 T00011031  RH  079%=      5-min Rain = 0
KHA2 091551Z 33003KT 00/M03 A3037 RMK A01 T00011032  RH  078%=      5-min Rain = 0
KHA2 091552Z 33003KT 00/M03 A3037 RMK A01 T00021032  RH  078%=      5-min Rain = 0
KHA2 091553Z 32003KT 00/M03 A3037 RMK A01 T00021034  RH  077%=      5-min Rain = 0
KHA2 091554Z 33004KT 00/M03 A3037 RMK A01 T00021034  RH  077%=      5-min Rain = 0
KHA2 091555Z 33004KT 00/M03 A3037 RMK A01 T00031033  RH  077%=      5-min Rain = 0
KHA2 091556Z 34004KT 00/M03 A3037 RMK A01 T00031034  RH  076%=      5-min Rain = 0
KHA2 091557Z 33003KT 00/M04 A3038 RMK A01 T00041036  RH  075%=      5-min Rain = 0
KHA2 091558Z 33003KT 00/M04 A3038 RMK A01 T00041035  RH  075%=      5-min Rain = 0
KHA2 091559Z 33003KT 00/M04 A3038 RMK A01 T00041035  RH  075%=      5-min Rain = 0
KHA2 091600Z 32003KT 01/M03 A3038 RMK A01 T00061030  RH  077%=      5-min Rain = 0
KHA2 091601Z 32004KT 01/M03 A3038 RMK A01 T00061032  RH  076%=      5-min Rain = 0
KHA2 091602Z 32004KT 01/M03 A3038 RMK A01 T00071034  RH  074%=      5-min Rain = 0
KHA2 091603Z 33003KT 01/M03 A3038 RMK A01 T00071034  RH  074%=      5-min Rain = 0
KHA2 091604Z 33003KT 01/M03 A3038 RMK A01 T00081030  RH  076%=      5-min Rain = 0
KHA2 091605Z 33002KT 01/M03 A3038 RMK A01 T00081030  RH  075%=      5-min Rain = 0
KHA2 091606Z 33003KT 01/M03 A3038 RMK A01 T00091031  RH  075%=      5-min Rain = 0
KHA2 091607Z 32003KT 01/M03 A3038 RMK A01 T00101031  RH  074%=      5-min Rain = 0
KHA2 091608Z 32003KT 01/M03 A3038 RMK A01 T00101031  RH  074%=      5-min Rain = 0
KHA2 091609Z 33003KT 01/M03 A3038 RMK A01 T00111030  RH  074%=      5-min Rain = 0
KHA2 091610Z 33003KT 01/M03 A3038 RMK A01 T00111029  RH  074%=      5-min Rain = 0
KHA2 091611Z 35003KT 01/M03 A3038 RMK A01 T00121029  RH  074%=      5-min Rain = 0
KHA2 091612Z 33003KT 01/M03 A3038 RMK A01 T00121030  RH  073%=      5-min Rain = 0
KHA2 091613Z 33003KT 01/M03 A3038 RMK A01 T00131026  RH  075%=      5-min Rain = 0
KHA2 091614Z 34003KT 01/M03 A3038 RMK A01 T00141025  RH  075%=      5-min Rain = 0
KHA2 091615Z 32003KT 01/M03 A3038 RMK A01 T00141027  RH  074%=      5-min Rain = 0
KHA2 091616Z 32003KT 02/M03 A3038 RMK A01 T00151027  RH  074%=      5-min Rain = 0
KHA2 091617Z 31004KT 02/M03 A3038 RMK A01 T00161025  RH  074%=      5-min Rain = 0
KHA2 091618Z 32004KT 02/M03 A3038 RMK A01 T00161026  RH  074%=      5-min Rain = 0
KHA2 091619Z 33003KT 02/M03 A3038 RMK A01 T00171025  RH  074%=      5-min Rain = 0
KHA2 091620Z 33003KT 02/M02 A3038 RMK A01 T00181022  RH  075%=      5-min Rain = 0
KHA2 091621Z 32004KT 02/M02 A3038 RMK A01 T00191024  RH  073%=      5-min Rain = 0
KHA2 091622Z 32004KT 02/M02 A3038 RMK A01 T00191024  RH  073%=      5-min Rain = 0
KHA2 091623Z 32004KT 02/M03 A3038 RMK A01 T00201025  RH  072%=      5-min Rain = 0
KHA2 091624Z 32004KT 02/M03 A3038 RMK A01 T00201025  RH  072%=      5-min Rain = 0
KHA2 091625Z 32003KT 02/M03 A3038 RMK A01 T00211025  RH  071%=      5-min Rain = 0
KHA2 091626Z 31003KT 02/M02 A3038 RMK A01 T00211023  RH  072%=      5-min Rain = 0
KHA2 091627Z 33004KT 02/M02 A3038 RMK A01 T00231022  RH  072%=      5-min Rain = 0
KHA2 091628Z 32004KT 02/M02 A3038 RMK A01 T00241021  RH  072%=      5-min Rain = 0
KHA2 091629Z 33004KT 02/M02 A3038 RMK A01 T00241022  RH  071%=      5-min Rain = 0
KHA2 091630Z 33003KT 03/M02 A3038 RMK A01 T00251023  RH  071%=      5-min Rain = 0
KHA2 091631Z 35003KT 03/M02 A3038 RMK A01 T00251020  RH  072%=      5-min Rain = 0
KHA2 091632Z 35004KT 03/M02 A3038 RMK A01 T00281018  RH  072%=      5-min Rain = 0
KHA2 091633Z 35005KT 03/M02 A3038 RMK A01 T00301021  RH  069%=      5-min Rain = 0
KHA2 091634Z 36004KT 03/M02 A3038 RMK A01 T00301022  RH  069%=      5-min Rain = 0
KHA2 091635Z 35004KT 03/M02 A3038 RMK A01 T00311020  RH  069%=      5-min Rain = 0
KHA2 091636Z 35005KT 03/M02 A3038 RMK A01 T00321021  RH  068%=      5-min Rain = 0
KHA2 091637Z 00005KT 03/M03 A3038 RMK A01 T00321026  RH  066%=      5-min Rain = 0
KHA2 091638Z 01006KT 03/M02 A3038 RMK A01 T00321024  RH  067%=      5-min Rain = 0
KHA2 091639Z 01006KT 03/M03 A3038 RMK A01 T00321026  RH  065%=      5-min Rain = 0
KHA2 091640Z 01006KT 03/M02 A3038 RMK A01 T00331023  RH  067%=      5-min Rain = 0
KHA2 091641Z 36006KT 03/M02 A3038 RMK A01 T00331024  RH  066%=      5-min Rain = 0
KHA2 091642Z 35006KT 03/M03 A3038 RMK A01 T00331025  RH  066%=      5-min Rain = 0
KHA2 091643Z 35005KT 03/M03 A3038 RMK A01 T00331026  RH  065%=      5-min Rain = 0
KHA2 091644Z 00006KT 03/M03 A3038 RMK A01 T00331026  RH  065%=      5-min Rain = 0
KHA2 091645Z 00006KT 03/M03 A3038 RMK A01 T00331025  RH  065%=      5-min Rain = 0
KHA2 091646Z 01006KT 03/M03 A3038 RMK A01 T00341028  RH  064%=      5-min Rain = 0
KHA2 091647Z 36006KT 03/M03 A3038 RMK A01 T00341026  RH  065%=      5-min Rain = 0
KHA2 091648Z 36005KT 04/M03 A3038 RMK A01 T00351025  RH  065%=      5-min Rain = 0
KHA2 091649Z 01006KT 04/M02 A3038 RMK A01 T00361022  RH  066%=      5-min Rain = 0
KHA2 091650Z 00006KT 04/M02 A3038 RMK A01 T00371023  RH  065%=      5-min Rain = 0
KHA2 091651Z 00006KT 04/M02 A3038 RMK A01 T00371023  RH  065%=      5-min Rain = 0
KHA2 091652Z 00005KT 04/M03 A3038 RMK A01 T00371025  RH  064%=      5-min Rain = 0
KHA2 091653Z 00005KT 04/M02 A3038 RMK A01 T00381020  RH  066%=      5-min Rain = 0
KHA2 091654Z 00006KT 04/M02 A3038 RMK A01 T00401021  RH  065%=      5-min Rain = 0
KHA2 091655Z 36006KT 04/M02 A3038 RMK A01 T00401024  RH  063%=      5-min Rain = 0
KHA2 091656Z 00007KT 04/M02 A3037 RMK A01 T00401024  RH  063%=      5-min Rain = 0
KHA2 091657Z 36007KT 04/M03 A3037 RMK A01 T00401027  RH  062%=      5-min Rain = 0
KHA2 091658Z 00007KT 04/M03 A3037 RMK A01 T00391028  RH  061%=      5-min Rain = 0
KHA2 091659Z 36006KT 04/M03 A3037 RMK A01 T00391028  RH  061%=      5-min Rain = 0
KHA2 091700Z 36007KT 04/M03 A3037 RMK A01 T00401026  RH  062%=      5-min Rain = 0
KHA2 091701Z 00006KT 04/M03 A3037 RMK A01 T00401032  RH  059%=      5-min Rain = 0
KHA2 091702Z 00007KT 04/M03 A3037 RMK A01 T00381030  RH  061%=      5-min Rain = 0
KHA2 091703Z 36007KT 04/M03 A3037 RMK A01 T00401028  RH  062%=      5-min Rain = 0
KHA2 091704Z 00007KT 04/M03 A3037 RMK A01 T00401029  RH  061%=      5-min Rain = 0
KHA2 091705Z 00007KT 04/M02 A3037 RMK A01 T00421022  RH  063%=      5-min Rain = 0
KHA2 091706Z 00008KT 04/M02 A3037 RMK A01 T00431024  RH  062%=      5-min Rain = 0
KHA2 091707Z 02007KT 04/M03 A3037 RMK A01 T00431025  RH  061%=      5-min Rain = 0
KHA2 091708Z 01007KT 04/M03 A3037 RMK A01 T00431028  RH  060%=      5-min Rain = 0
KHA2 091709Z 01006KT 04/M03 A3037 RMK A01 T00421027  RH  061%=      5-min Rain = 0
KHA2 091710Z 01005KT 04/M03 A3037 RMK A01 T00421025  RH  062%=      5-min Rain = 0
KHA2 091711Z 35006KT 04/M02 A3037 RMK A01 T00431024  RH  062%=      5-min Rain = 0
KHA2 091712Z 00007KT 04/M03 A3037 RMK A01 T00441025  RH  061%=      5-min Rain = 0
KHA2 091713Z 00008KT 04/M03 A3037 RMK A01 T00441025  RH  061%=      5-min Rain = 0
KHA2 091714Z 01007KT 04/M03 A3037 RMK A01 T00441025  RH  061%=      5-min Rain = 0
KHA2 091715Z 00007KT 05/M02 A3037 RMK A01 T00451024  RH  061%=      5-min Rain = 0
KHA2 091716Z 01006KT 05/M03 A3037 RMK A01 T00461027  RH  059%=      5-min Rain = 0
KHA2 091717Z 04007KT 05/M03 A3037 RMK A01 T00461025  RH  060%=      5-min Rain = 0
KHA2 091718Z 02009KT 05/M03 A3037 RMK A01 T00481025  RH  059%=      5-min Rain = 0
KHA2 091719Z 02009KT 05/M03 A3037 RMK A01 T00481027  RH  058%=      5-min Rain = 0
KHA2 091720Z 04008KT 05/M03 A3037 RMK A01 T00481029  RH  058%=      5-min Rain = 0
KHA2 091721Z 02006KT 05/M03 A3037 RMK A01 T00471033  RH  056%=      5-min Rain = 0
KHA2 091722Z 36007KT 05/M03 A3037 RMK A01 T00471030  RH  057%=      5-min Rain = 0
KHA2 091723Z 36007KT 05/M02 A3037 RMK A01 T00481023  RH  060%=      5-min Rain = 0
KHA2 091724Z 01008KT 05/M03 A3037 RMK A01 T00491025  RH  059%=      5-min Rain = 0
KHA2 091725Z 03008KT 05/M03 A3037 RMK A01 T00491032  RH  056%=      5-min Rain = 0
KHA2 091726Z 03008KT 05/M03 A3037 RMK A01 T00491032  RH  056%=      5-min Rain = 0
KHA2 091727Z 01008KT 05/M03 A3037 RMK A01 T00501031  RH  056%=      5-min Rain = 0
KHA2 091728Z 02008KT 05/M03 A3037 RMK A01 T00511029  RH  056%=      5-min Rain = 0
KHA2 091729Z 03008KT 05/M03 A3037 RMK A01 T00521029  RH  056%=      5-min Rain = 0
KHA2 091730Z 02007KT 05/M03 A3037 RMK A01 T00511032  RH  055%=      5-min Rain = 0
KHA2 091731Z 03006KT 05/M03 A3037 RMK A01 T00501029  RH  056%=      5-min Rain = 0
KHA2 091732Z 04007KT 05/M02 A3037 RMK A01 T00531024  RH  058%=      5-min Rain = 0
KHA2 091733Z 02007KT 06/M02 A3037 RMK A01 T00551024  RH  057%=      5-min Rain = 0
KHA2 091734Z 03008KT 05/M03 A3037 RMK A01 T00531029  RH  055%=      5-min Rain = 0
KHA2 091735Z 03009KT 05/M03 A3037 RMK A01 T00531029  RH  056%=      5-min Rain = 0
KHA2 091736Z 03008KT 05/M03 A3037 RMK A01 T00511029  RH  056%=      5-min Rain = 0
KHA2 091737Z 03008KT 05/M03 A3037 RMK A01 T00511029  RH  056%=      5-min Rain = 0
KHA2 091738Z 01008KT 05/M03 A3037 RMK A01 T00511026  RH  058%=      5-min Rain = 0
KHA2 091739Z 00008KT 05/M03 A3037 RMK A01 T00531025  RH  057%=      5-min Rain = 0
KHA2 091740Z 03008KT 05/M03 A3037 RMK A01 T00531026  RH  057%=      5-min Rain = 0
KHA2 091741Z 03006KT 05/M03 A3037 RMK A01 T00541026  RH  056%=      5-min Rain = 0
KHA2 091742Z 03007KT 05/M03 A3037 RMK A01 T00541029  RH  055%=      5-min Rain = 0
KHA2 091743Z 02006KT 05/M03 A3037 RMK A01 T00531027  RH  056%=      5-min Rain = 0
KHA2 091744Z 01005KT 05/M02 A3037 RMK A01 T00541021  RH  058%=      5-min Rain = 0
KHA2 091745Z 35005KT 06/M02 A3037 RMK A01 T00571024  RH  056%=      5-min Rain = 0
KHA2 091746Z 01008KT 06/M02 A3037 RMK A01 T00561023  RH  057%=      5-min Rain = 0
KHA2 091747Z 01006KT 06/M03 A3037 RMK A01 T00551026  RH  056%=      5-min Rain = 0
KHA2 091748Z 02005KT 05/M03 A3037 RMK A01 T00531030  RH  055%=      5-min Rain = 0
KHA2 091749Z 01006KT 05/M03 A3037 RMK A01 T00531027  RH  056%=      5-min Rain = 0
KHA2 091750Z 00006KT 05/M03 A3037 RMK A01 T00541025  RH  057%=      5-min Rain = 0
KHA2 091751Z 36005KT 06/M03 A3037 RMK A01 T00551030  RH  054%=      5-min Rain = 0
KHA2 091752Z 34007KT 05/M03 A3037 RMK A01 T00541030  RH  055%=      5-min Rain = 0
KHA2 091753Z 36010KT 05/M02 A3037 RMK A01 T00541024  RH  057%=      5-min Rain = 0
KHA2 091754Z 36008KT 05/M03 A3037 RMK A01 T00541026  RH  056%=      5-min Rain = 0
KHA2 091755Z 01007KT 05/M03 A3037 RMK A01 T00541027  RH  056%=      5-min Rain = 0
KHA2 091756Z 01005KT 05/M03 A3037 RMK A01 T00541029  RH  055%=      5-min Rain = 0
KHA2 091757Z 03004KT 06/M03 A3037 RMK A01 T00551030  RH  054%=      5-min Rain = 0
KHA2 091758Z 02004KT 06/M03 A3036 RMK A01 T00551031  RH  054%=      5-min Rain = 0
KHA2 091759Z 01004KT 06/M03 A3036 RMK A01 T00551029  RH  055%=      5-min Rain = 0
KHA2 091800Z 00005KT 06/M02 A3036 RMK A01 T00571024  RH  056%=      5-min Rain = 0
KHA2 091801Z 36007KT 06/M02 A3036 RMK A01 T00581022  RH  056%=      5-min Rain = 0
KHA2 091802Z 00005KT 06/M03 A3036 RMK A01 T00591026  RH  055%=      5-min Rain = 0
KHA2 091803Z 00005KT 06/M03 A3036 RMK A01 T00581029  RH  054%=      5-min Rain = 0
KHA2 091804Z 02010KT 06/M03 A3036 RMK A01 T00571029  RH  054%=      5-min Rain = 0
KHA2 091805Z 01009KT 06/M03 A3036 RMK A01 T00571032  RH  053%=      5-min Rain = 0
KHA2 091806Z 01008KT 06/M03 A3036 RMK A01 T00561032  RH  053%=      5-min Rain = 0
KHA2 091807Z 02006KT 06/M03 A3036 RMK A01 T00571032  RH  053%=      5-min Rain = 0
KHA2 091808Z 02004KT 06/M04 A3036 RMK A01 T00571036  RH  051%=      5-min Rain = 0
KHA2 091809Z 04002KT 06/M04 A3036 RMK A01 T00561036  RH  051%=      5-min Rain = 0
KHA2 091810Z 02003KT 06/M04 A3036 RMK A01 T00551037  RH  051%=      5-min Rain = 0
KHA2 091811Z 00007KT 06/M04 A3036 RMK A01 T00561035  RH  052%=      5-min Rain = 0
KHA2 091812Z 01007KT 06/M03 A3036 RMK A01 T00571030  RH  053%=      5-min Rain = 0
KHA2 091813Z 02005KT 06/M03 A3036 RMK A01 T00601031  RH  052%=      5-min Rain = 0
KHA2 091814Z 03004KT 06/M04 A3036 RMK A01 T00611036  RH  050%=      5-min Rain = 0
KHA2 091815Z 01005KT 06/M04 A3036 RMK A01 T00601035  RH  051%=      5-min Rain = 0
KHA2 091816Z 35006KT 06/M03 A3036 RMK A01 T00601030  RH  052%=      5-min Rain = 0
KHA2 091817Z 35008KT 06/M03 A3036 RMK A01 T00601025  RH  054%=      5-min Rain = 0
KHA2 091818Z 00009KT 06/M03 A3036 RMK A01 T00611026  RH  054%=      5-min Rain = 0
KHA2 091819Z 00007KT 06/M03 A3036 RMK A01 T00621031  RH  052%=      5-min Rain = 0
KHA2 091820Z 00006KT 06/M03 A3036 RMK A01 T00591034  RH  051%=      5-min Rain = 0
KHA2 091821Z 00006KT 06/M03 A3036 RMK A01 T00591031  RH  053%=      5-min Rain = 0
KHA2 091822Z 00005KT 06/M03 A3036 RMK A01 T00601032  RH  051%=      5-min Rain = 0
KHA2 091823Z 00006KT 06/M03 A3036 RMK A01 T00601034  RH  051%=      5-min Rain = 0
KHA2 091824Z 35005KT 06/M04 A3036 RMK A01 T00591038  RH  050%=      5-min Rain = 0
KHA2 091825Z 35006KT 06/M03 A3035 RMK A01 T00591034  RH  051%=      5-min Rain = 0
KHA2 091826Z 02004KT 06/M03 A3035 RMK A01 T00591033  RH  052%=      5-min Rain = 0
KHA2 091827Z 05006KT 06/M03 A3035 RMK A01 T00621027  RH  053%=      5-min Rain = 0
KHA2 091828Z 05007KT 07/M03 A3035 RMK A01 T00651030  RH  050%=      5-min Rain = 0
KHA2 091829Z 04008KT 07/M03 A3035 RMK A01 T00651033  RH  050%=      5-min Rain = 0
KHA2 091830Z 03007KT 06/M03 A3035 RMK A01 T00641034  RH  049%=      5-min Rain = 0
KHA2 091831Z 04004KT 06/M04 A3035 RMK A01 T00631038  RH  049%=      5-min Rain = 0
KHA2 091832Z 05004KT 06/M04 A3035 RMK A01 T00611038  RH  049%=      5-min Rain = 0
KHA2 091833Z 06003KT 06/M04 A3035 RMK A01 T00611039  RH  049%=      5-min Rain = 0
KHA2 091834Z 06002KT 06/M04 A3035 RMK A01 T00601039  RH  049%=      5-min Rain = 0
KHA2 091835Z 05002KT 06/M04 A3034 RMK A01 T00611036  RH  049%=      5-min Rain = 0
KHA2 091836Z 02003KT 06/M04 A3034 RMK A01 T00621035  RH  050%=      5-min Rain = 0
KHA2 091837Z 04006KT 06/M03 A3034 RMK A01 T00641033  RH  050%=      5-min Rain = 0
KHA2 091838Z 03008KT 07/M04 A3034 RMK A01 T00661035  RH  049%=      5-min Rain = 0
KHA2 091839Z 02007KT 07/M04 A3034 RMK A01 T00671036  RH  048%=      5-min Rain = 0
KHA2 091840Z 03005KT 07/M04 A3034 RMK A01 T00661040  RH  047%=      5-min Rain = 0
KHA2 091841Z 03004KT 06/M04 A3034 RMK A01 T00641043  RH  046%=      5-min Rain = 0
KHA2 091842Z 02003KT 06/M04 A3034 RMK A01 T00621040  RH  048%=      5-min Rain = 0
KHA2 091843Z 01005KT 06/M04 A3034 RMK A01 T00641036  RH  049%=      5-min Rain = 0
KHA2 091844Z 36007KT 07/M04 A3034 RMK A01 T00651035  RH  049%=      5-min Rain = 0
KHA2 091845Z 01006KT 07/M03 A3034 RMK A01 T00661034  RH  049%=      5-min Rain = 0
KHA2 091846Z 03004KT 07/M04 A3034 RMK A01 T00661039  RH  047%=      5-min Rain = 0
KHA2 091847Z 03005KT 07/M04 A3034 RMK A01 T00661037  RH  048%=      5-min Rain = 0
KHA2 091848Z 02007KT 07/M03 A3034 RMK A01 T00681033  RH  048%=      5-min Rain = 0
KHA2 091849Z 02007KT 07/M04 A3034 RMK A01 T00691035  RH  047%=      5-min Rain = 0
KHA2 091850Z 02007KT 07/M04 A3034 RMK A01 T00671036  RH  047%=      5-min Rain = 0
KHA2 091851Z 02006KT 07/M04 A3034 RMK A01 T00671038  RH  047%=      5-min Rain = 0
KHA2 091852Z 01006KT 07/M04 A3034 RMK A01 T00671035  RH  048%=      5-min Rain = 0
KHA2 091853Z 02006KT 07/M03 A3034 RMK A01 T00691034  RH  048%=      5-min Rain = 0
KHA2 091854Z 04006KT 07/M04 A3034 RMK A01 T00701035  RH  047%=      5-min Rain = 0
KHA2 091855Z 04006KT 07/M04 A3034 RMK A01 T00701035  RH  047%=      5-min Rain = 0
KHA2 091856Z 04005KT 07/M04 A3034 RMK A01 T00701037  RH  046%=      5-min Rain = 0
KHA2 091857Z 02003KT 07/M04 A3033 RMK A01 T00691038  RH  046%=      5-min Rain = 0
KHA2 091858Z 04006KT 07/M04 A3033 RMK A01 T00691038  RH  047%=      5-min Rain = 0
KHA2 091859Z 02007KT 07/M04 A3033 RMK A01 T00691039  RH  046%=      5-min Rain = 0
KHA2 091900Z 03003KT 07/M04 A3033 RMK A01 T00691042  RH  045%=      5-min Rain = 0
KHA2 091901Z 04004KT 07/M04 A3033 RMK A01 T00691043  RH  045%=      5-min Rain = 0
KHA2 091902Z 03005KT 07/M04 A3033 RMK A01 T00691042  RH  045%=      5-min Rain = 0
KHA2 091903Z 01008KT 07/M04 A3033 RMK A01 T00691041  RH  045%=      5-min Rain = 0
KHA2 091904Z 03008KT 07/M04 A3033 RMK A01 T00701042  RH  045%=      5-min Rain = 0
KHA2 091905Z 03007KT 07/M04 A3033 RMK A01 T00711041  RH  045%=      5-min Rain = 0
KHA2 091906Z 01006KT 07/M04 A3033 RMK A01 T00721044  RH  044%=      5-min Rain = 0
KHA2 091907Z 02007KT 07/M04 A3033 RMK A01 T00721043  RH  044%=      5-min Rain = 0
KHA2 091908Z 02008KT 07/M04 A3033 RMK A01 T00721041  RH  045%=      5-min Rain = 0
KHA2 091909Z 02006KT 07/M04 A3033 RMK A01 T00731039  RH  045%=      5-min Rain = 0
KHA2 091910Z 02006KT 07/M04 A3033 RMK A01 T00731042  RH  044%=      5-min Rain = 0
KHA2 091911Z 01008KT 07/M04 A3033 RMK A01 T00731040  RH  044%=      5-min Rain = 0
KHA2 091912Z 01006KT 07/M04 A3033 RMK A01 T00731041  RH  044%=      5-min Rain = 0
KHA2 091913Z 00004KT 07/M04 A3033 RMK A01 T00731042  RH  044%=      5-min Rain = 0
KHA2 091914Z 34003KT 07/M04 A3033 RMK A01 T00721042  RH  044%=      5-min Rain = 0
KHA2 091915Z 35003KT 07/M04 A3033 RMK A01 T00721040  RH  045%=      5-min Rain = 0
KHA2 091916Z 01002KT 07/M04 A3033 RMK A01 T00721041  RH  044%=      5-min Rain = 0
KHA2 091917Z 35003KT 07/M04 A3033 RMK A01 T00731040  RH  045%=      5-min Rain = 0
KHA2 091918Z 01005KT 07/M04 A3033 RMK A01 T00741038  RH  045%=      5-min Rain = 0
KHA2 091919Z 36007KT 07/M04 A3033 RMK A01 T00741038  RH  045%=      5-min Rain = 0
KHA2 091920Z 34006KT 08/M04 A3033 RMK A01 T00751038  RH  045%=      5-min Rain = 0
KHA2 091921Z 02009KT 08/M04 A3033 RMK A01 T00751036  RH  045%=      5-min Rain = 0
KHA2 091922Z 36007KT 08/M04 A3033 RMK A01 T00751039  RH  044%=      5-min Rain = 0
KHA2 091923Z 00006KT 08/M04 A3033 RMK A01 T00761035  RH  045%=      5-min Rain = 0
KHA2 091924Z 02004KT 08/M04 A3033 RMK A01 T00761042  RH  043%=      5-min Rain = 0
KHA2 091925Z 03005KT 08/M04 A3033 RMK A01 T00761044  RH  042%=      5-min Rain = 0
KHA2 091926Z 03004KT 08/M04 A3033 RMK A01 T00761043  RH  042%=      5-min Rain = 0
KHA2 091927Z 02006KT 08/M04 A3033 RMK A01 T00771042  RH  043%=      5-min Rain = 0
KHA2 091928Z 01007KT 08/M04 A3033 RMK A01 T00781040  RH  043%=      5-min Rain = 0
KHA2 091929Z 01005KT 08/M05 A3033 RMK A01 T00771045  RH  042%=      5-min Rain = 0
KHA2 091930Z 36007KT 08/M04 A3033 RMK A01 T00771040  RH  043%=      5-min Rain = 0
KHA2 091931Z 35004KT 08/M04 A3033 RMK A01 T00771044  RH  042%=      5-min Rain = 0
KHA2 091932Z 01005KT 08/M04 A3033 RMK A01 T00761038  RH  044%=      5-min Rain = 0
KHA2 091933Z 01005KT 08/M04 A3033 RMK A01 T00781041  RH  043%=      5-min Rain = 0
KHA2 091934Z 03007KT 08/M04 A3033 RMK A01 T00781041  RH  043%=      5-min Rain = 0
KHA2 091935Z 03007KT 08/M04 A3033 RMK A01 T00781042  RH  042%=      5-min Rain = 0
KHA2 091936Z 02005KT 08/M04 A3033 RMK A01 T00771042  RH  043%=      5-min Rain = 0
KHA2 091937Z 05004KT 08/M04 A3033 RMK A01 T00771041  RH  043%=      5-min Rain = 0
KHA2 091938Z 05006KT 08/M04 A3033 RMK A01 T00781044  RH  042%=      5-min Rain = 0
KHA2 091939Z 04005KT 08/M05 A3033 RMK A01 T00761048  RH  041%=      5-min Rain = 0
KHA2 091940Z 05004KT 08/M05 A3033 RMK A01 T00751047  RH  042%=      5-min Rain = 0
KHA2 091941Z 05004KT 08/M05 A3033 RMK A01 T00761045  RH  042%=      5-min Rain = 0
KHA2 091942Z 03003KT 08/M05 A3033 RMK A01 T00761048  RH  041%=      5-min Rain = 0
KHA2 091943Z 06004KT 08/M05 A3033 RMK A01 T00761045  RH  042%=      5-min Rain = 0
KHA2 091944Z 35004KT 08/M04 A3033 RMK A01 T00781041  RH  043%=      5-min Rain = 0
KHA2 091945Z 01006KT 08/M04 A3032 RMK A01 T00791041  RH  042%=      5-min Rain = 0
KHA2 091946Z 01009KT 08/M04 A3032 RMK A01 T00801040  RH  043%=      5-min Rain = 0
KHA2 091947Z 01009KT 08/M04 A3032 RMK A01 T00811036  RH  043%=      5-min Rain = 0
KHA2 091948Z 00008KT 08/M04 A3032 RMK A01 T00821042  RH  041%=      5-min Rain = 0
KHA2 091949Z 00003KT 08/M05 A3032 RMK A01 T00791048  RH  040%=      5-min Rain = 0
KHA2 091950Z 35007KT 08/M05 A3032 RMK A01 T00771046  RH  041%=      5-min Rain = 0
KHA2 091951Z 36007KT 08/M04 A3032 RMK A01 T00781040  RH  043%=      5-min Rain = 0
KHA2 091952Z 35006KT 08/M04 A3032 RMK A01 T00791041  RH  042%=      5-min Rain = 0
KHA2 091953Z 34003KT 08/M04 A3032 RMK A01 T00791042  RH  042%=      5-min Rain = 0
KHA2 091954Z 35002KT 08/M04 A3032 RMK A01 T00791044  RH  041%=      5-min Rain = 0
KHA2 091955Z 01001KT 08/M05 A3032 RMK A01 T00791047  RH  040%=      5-min Rain = 0
KHA2 091956Z 02001KT 08/M05 A3032 RMK A01 T00791049  RH  040%=      5-min Rain = 0
KHA2 091957Z 09000KT 08/M05 A3032 RMK A01 T00801048  RH  040%=      5-min Rain = 0
KHA2 091958Z 01001KT 08/M05 A3032 RMK A01 T00801049  RH  040%=      5-min Rain = 0
KHA2 091959Z 01001KT 08/M04 A3032 RMK A01 T00811043  RH  041%=      5-min Rain = 0
KHA2 092000Z 35003KT 08/M04 A3032 RMK A01 T00831041  RH  041%=      5-min Rain = 0
KHA2 092001Z 32002KT 08/M04 A3032 RMK A01 T00841037  RH  042%=      5-min Rain = 0
KHA2 092002Z 34001KT 09/M04 A3032 RMK A01 T00851039  RH  041%=      5-min Rain = 0
KHA2 092003Z 04003KT 09/M04 A3032 RMK A01 T00851042  RH  040%=      5-min Rain = 0
KHA2 092004Z 00003KT 08/M05 A3032 RMK A01 T00841045  RH  040%=      5-min Rain = 0
KHA2 092005Z 05005KT 08/M04 A3032 RMK A01 T00831041  RH  041%=      5-min Rain = 0
KHA2 092006Z 05005KT 08/M05 A3032 RMK A01 T00831045  RH  040%=      5-min Rain = 0
KHA2 092007Z 05003KT 08/M05 A3032 RMK A01 T00811047  RH  040%=      5-min Rain = 0
KHA2 092008Z 05003KT 08/M05 A3032 RMK A01 T00811047  RH  040%=      5-min Rain = 0
KHA2 092009Z 36005KT 08/M05 A3032 RMK A01 T00811046  RH  040%=      5-min Rain = 0
KHA2 092010Z 02007KT 08/M04 A3031 RMK A01 T00811044  RH  041%=      5-min Rain = 0
KHA2 092011Z 02006KT 08/M05 A3031 RMK A01 T00801046  RH  040%=      5-min Rain = 0
KHA2 092012Z 02007KT 08/M05 A3031 RMK A01 T00791045  RH  041%=      5-min Rain = 0
KHA2 092013Z 02006KT 08/M04 A3031 RMK A01 T00801044  RH  041%=      5-min Rain = 0
KHA2 092014Z 01004KT 08/M05 A3031 RMK A01 T00791047  RH  041%=      5-min Rain = 0
KHA2 092015Z 01004KT 08/M05 A3031 RMK A01 T00791045  RH  041%=      5-min Rain = 0
KHA2 092016Z 01003KT 08/M05 A3031 RMK A01 T00801047  RH  040%=      5-min Rain = 0
KHA2 092017Z 35003KT 08/M05 A3031 RMK A01 T00801047  RH  040%=      5-min Rain = 0
KHA2 092018Z 00003KT 08/M04 A3031 RMK A01 T00811041  RH  042%=      5-min Rain = 0
KHA2 092019Z 35001KT 08/M04 A3031 RMK A01 T00831043  RH  041%=      5-min Rain = 0
KHA2 092020Z 35005KT 08/M05 A3031 RMK A01 T00831046  RH  040%=      5-min Rain = 0
KHA2 092021Z 36006KT 08/M04 A3031 RMK A01 T00821042  RH  041%=      5-min Rain = 0
KHA2 092022Z 35007KT 08/M04 A3031 RMK A01 T00831043  RH  041%=      5-min Rain = 0
KHA2 092023Z 34007KT 08/M04 A3032 RMK A01 T00831042  RH  041%=      5-min Rain = 0
KHA2 092024Z 35006KT 08/M04 A3032 RMK A01 T00821042  RH  041%=      5-min Rain = 0
KHA2 092025Z 33006KT 08/M04 A3032 RMK A01 T00821044  RH  041%=      5-min Rain = 0
KHA2 092026Z 32005KT 08/M04 A3032 RMK A01 T00821043  RH  041%=      5-min Rain = 0
KHA2 092027Z 31002KT 08/M05 A3032 RMK A01 T00821046  RH  040%=      5-min Rain = 0
KHA2 092028Z 33003KT 08/M04 A3032 RMK A01 T00821044  RH  041%=      5-min Rain = 0
KHA2 092029Z 34004KT 08/M05 A3032 RMK A01 T00831045  RH  040%=      5-min Rain = 0
KHA2 092030Z 33005KT 08/M04 A3032 RMK A01 T00831043  RH  041%=      5-min Rain = 0
KHA2 092031Z 31002KT 08/M04 A3032 RMK A01 T00831043  RH  041%=      5-min Rain = 0
KHA2 092032Z 36002KT 08/M04 A3032 RMK A01 T00841044  RH  040%=      5-min Rain = 0
KHA2 092033Z 35002KT 08/M05 A3032 RMK A01 T00841048  RH  039%=      5-min Rain = 0
KHA2 092034Z 04001KT 08/M05 A3032 RMK A01 T00841049  RH  039%=      5-min Rain = 0
KHA2 092035Z 34002KT 09/M05 A3031 RMK A01 T00851047  RH  039%=      5-min Rain = 0
KHA2 092036Z 34002KT 09/M05 A3031 RMK A01 T00851045  RH  039%=      5-min Rain = 0
KHA2 092037Z 36003KT 09/M04 A3031 RMK A01 T00861043  RH  040%=      5-min Rain = 0
KHA2 092038Z 04003KT 09/M04 A3031 RMK A01 T00871043  RH  039%=      5-min Rain = 0
KHA2 092039Z 01002KT 09/M04 A3031 RMK A01 T00871043  RH  039%=      5-min Rain = 0
KHA2 092040Z 32003KT 09/M04 A3031 RMK A01 T00891043  RH  039%=      5-min Rain = 0
KHA2 092041Z 33006KT 09/M04 A3031 RMK A01 T00891041  RH  040%=      5-min Rain = 0
KHA2 092042Z 31005KT 09/M05 A3031 RMK A01 T00881045  RH  039%=      5-min Rain = 0
KHA2 092043Z 31005KT 09/M05 A3031 RMK A01 T00851049  RH  038%=      5-min Rain = 0
KHA2 092044Z 33004KT 08/M05 A3031 RMK A01 T00841050  RH  039%=      5-min Rain = 0
KHA2 092045Z 36003KT 08/M05 A3031 RMK A01 T00831047  RH  039%=      5-min Rain = 0
KHA2 092046Z 02002KT 08/M05 A3031 RMK A01 T00841053  RH  038%=      5-min Rain = 0
KHA2 092047Z 01001KT 08/M05 A3031 RMK A01 T00841054  RH  037%=      5-min Rain = 0
KHA2 092048Z 02002KT 08/M05 A3031 RMK A01 T00841052  RH  038%=      5-min Rain = 0
KHA2 092049Z 01002KT 09/M05 A3031 RMK A01 T00861052  RH  037%=      5-min Rain = 0
KHA2 092050Z 04004KT 09/M05 A3031 RMK A01 T00861048  RH  038%=      5-min Rain = 0
KHA2 092051Z 02005KT 09/M05 A3031 RMK A01 T00881046  RH  038%=      5-min Rain = 0
KHA2 092052Z 02003KT 09/M05 A3031 RMK A01 T00871050  RH  038%=      5-min Rain = 0
KHA2 092053Z 35005KT 09/M05 A3031 RMK A01 T00861046  RH  039%=      5-min Rain = 0
KHA2 092054Z 34005KT 09/M04 A3031 RMK A01 T00871044  RH  039%=      5-min Rain = 0
KHA2 092055Z 33005KT 09/M05 A3031 RMK A01 T00881046  RH  038%=      5-min Rain = 0
KHA2 092056Z 33006KT 09/M04 A3031 RMK A01 T00881044  RH  039%=      5-min Rain = 0
KHA2 092057Z 33006KT 09/M05 A3031 RMK A01 T00881047  RH  038%=      5-min Rain = 0
KHA2 092058Z 31005KT 09/M05 A3031 RMK A01 T00871048  RH  038%=      5-min Rain = 0
KHA2 092059Z 32006KT 09/M05 A3031 RMK A01 T00871045  RH  039%=      5-min Rain = 0
KHA2 092100Z 35006KT 09/M04 A3031 RMK A01 T00871044  RH  039%=      5-min Rain = 0
KHA2 092101Z 35006KT 09/M04 A3031 RMK A01 T00871043  RH  040%=      5-min Rain = 0
KHA2 092102Z 35006KT 09/M05 A3031 RMK A01 T00871046  RH  039%=      5-min Rain = 0
KHA2 092103Z 35003KT 09/M05 A3031 RMK A01 T00871051  RH  037%=      5-min Rain = 0
KHA2 092104Z 01004KT 09/M05 A3031 RMK A01 T00861051  RH  038%=      5-min Rain = 0
KHA2 092105Z 01004KT 09/M05 A3031 RMK A01 T00871051  RH  037%=      5-min Rain = 0
KHA2 092106Z 03002KT 09/M05 A3031 RMK A01 T00871054  RH  037%=      5-min Rain = 0
KHA2 092107Z 01001KT 09/M06 A3031 RMK A01 T00861055  RH  036%=      5-min Rain = 0
KHA2 092108Z 32003KT 09/M05 A3031 RMK A01 T00861054  RH  037%=      5-min Rain = 0
KHA2 092109Z 35005KT 09/M05 A3031 RMK A01 T00871051  RH  037%=      5-min Rain = 0
KHA2 092110Z 36007KT 09/M05 A3031 RMK A01 T00881047  RH  038%=      5-min Rain = 0
KHA2 092111Z 00007KT 09/M05 A3031 RMK A01 T00881048  RH  038%=      5-min Rain = 0
KHA2 092112Z 01008KT 09/M05 A3031 RMK A01 T00881052  RH  037%=      5-min Rain = 0
KHA2 092113Z 35008KT 09/M05 A3031 RMK A01 T00871054  RH  036%=      5-min Rain = 0
KHA2 092114Z 01008KT 09/M05 A3031 RMK A01 T00871051  RH  037%=      5-min Rain = 0
KHA2 092115Z 01006KT 09/M05 A3031 RMK A01 T00871054  RH  036%=      5-min Rain = 0
KHA2 092116Z 36004KT 09/M06 A3031 RMK A01 T00861057  RH  036%=      5-min Rain = 0
KHA2 092117Z 01006KT 09/M05 A3031 RMK A01 T00861054  RH  037%=      5-min Rain = 0
KHA2 092118Z 02006KT 09/M06 A3031 RMK A01 T00861058  RH  036%=      5-min Rain = 0
KHA2 092119Z 02005KT 09/M06 A3031 RMK A01 T00861058  RH  036%=      5-min Rain = 0
KHA2 092120Z 02006KT 09/M06 A3031 RMK A01 T00851058  RH  036%=      5-min Rain = 0
KHA2 092121Z 02005KT 09/M06 A3031 RMK A01 T00861058  RH  036%=      5-min Rain = 0
KHA2 092122Z 04004KT 09/M06 A3031 RMK A01 T00851059  RH  035%=      5-min Rain = 0
KHA2 092123Z 01005KT 09/M06 A3031 RMK A01 T00851059  RH  035%=      5-min Rain = 0
KHA2 092124Z 00007KT 09/M06 A3031 RMK A01 T00861056  RH  036%=      5-min Rain = 0
KHA2 092125Z 01006KT 09/M06 A3031 RMK A01 T00861056  RH  036%=      5-min Rain = 0
KHA2 092126Z 03005KT 09/M06 A3031 RMK A01 T00861056  RH  036%=      5-min Rain = 0
KHA2 092127Z 04005KT 09/M06 A3031 RMK A01 T00851058  RH  036%=      5-min Rain = 0
KHA2 092128Z 03004KT 09/M06 A3031 RMK A01 T00851056  RH  036%=      5-min Rain = 0
KHA2 092129Z 35005KT 09/M05 A3031 RMK A01 T00851053  RH  037%=      5-min Rain = 0
KHA2 092130Z 34003KT 09/M05 A3031 RMK A01 T00871050  RH  038%=      5-min Rain = 0
KHA2 092131Z 36003KT 09/M06 A3031 RMK A01 T00881055  RH  036%=      5-min Rain = 0
KHA2 092132Z 35004KT 09/M06 A3031 RMK A01 T00881055  RH  036%=      5-min Rain = 0
KHA2 092133Z 01007KT 09/M05 A3031 RMK A01 T00891050  RH  037%=      5-min Rain = 0
KHA2 092134Z 01007KT 09/M05 A3031 RMK A01 T00891050  RH  037%=      5-min Rain = 0
KHA2 092135Z 01005KT 09/M05 A3031 RMK A01 T00881053  RH  036%=      5-min Rain = 0
KHA2 092136Z 01006KT 09/M05 A3031 RMK A01 T00881053  RH  037%=      5-min Rain = 0
KHA2 092137Z 36006KT 09/M05 A3031 RMK A01 T00871048  RH  038%=      5-min Rain = 0
KHA2 092138Z 00004KT 09/M06 A3031 RMK A01 T00881055  RH  036%=      5-min Rain = 0
KHA2 092139Z 35004KT 09/M05 A3031 RMK A01 T00881054  RH  036%=      5-min Rain = 0
KHA2 092140Z 00006KT 09/M05 A3031 RMK A01 T00881052  RH  037%=      5-min Rain = 0
KHA2 092141Z 01006KT 09/M05 A3031 RMK A01 T00881052  RH  037%=      5-min Rain = 0
KHA2 092142Z 01004KT 09/M06 A3031 RMK A01 T00881055  RH  036%=      5-min Rain = 0
KHA2 092143Z 02003KT 09/M05 A3032 RMK A01 T00891052  RH  036%=      5-min Rain = 0
KHA2 092144Z 02004KT 09/M05 A3032 RMK A01 T00901054  RH  036%=      5-min Rain = 0
KHA2 092145Z 01004KT 09/M06 A3032 RMK A01 T00901058  RH  035%=      5-min Rain = 0
KHA2 092146Z 35004KT 09/M06 A3032 RMK A01 T00891055  RH  036%=      5-min Rain = 0
KHA2 092147Z 34006KT 09/M06 A3032 RMK A01 T00891057  RH  035%=      5-min Rain = 0
KHA2 092148Z 32006KT 09/M06 A3032 RMK A01 T00881058  RH  035%=      5-min Rain = 0
KHA2 092149Z 33005KT 09/M06 A3032 RMK A01 T00881056  RH  036%=      5-min Rain = 0
KHA2 092150Z 34007KT 09/M05 A3032 RMK A01 T00881049  RH  038%=      5-min Rain = 0
KHA2 092151Z 33006KT 09/M05 A3032 RMK A01 T00881052  RH  037%=      5-min Rain = 0
KHA2 092152Z 33005KT 09/M05 A3032 RMK A01 T00881053  RH  037%=      5-min Rain = 0
KHA2 092153Z 33006KT 09/M05 A3032 RMK A01 T00871053  RH  037%=      5-min Rain = 0
KHA2 092154Z 33006KT 09/M05 A3032 RMK A01 T00871051  RH  037%=      5-min Rain = 0
KHA2 092155Z 34007KT 09/M05 A3032 RMK A01 T00871048  RH  038%=      5-min Rain = 0
KHA2 092156Z 34005KT 09/M05 A3032 RMK A01 T00871052  RH  037%=      5-min Rain = 0
KHA2 092157Z 35004KT 09/M05 A3032 RMK A01 T00871051  RH  037%=      5-min Rain = 0
KHA2 092158Z 35005KT 09/M05 A3032 RMK A01 T00871051  RH  037%=      5-min Rain = 0
KHA2 092159Z 00004KT 09/M05 A3032 RMK A01 T00871051  RH  037%=      5-min Rain = 0
KHA2 092200Z 36004KT 09/M05 A3032 RMK A01 T00881053  RH  037%=      5-min Rain = 0
KHA2 092201Z 36005KT 09/M06 A3032 RMK A01 T00881056  RH  036%=      5-min Rain = 0
KHA2 092202Z 02006KT 09/M05 A3032 RMK A01 T00891050  RH  037%=      5-min Rain = 0
KHA2 092203Z 03006KT 09/M05 A3032 RMK A01 T00891054  RH  036%=      5-min Rain = 0
KHA2 092204Z 04006KT 09/M06 A3032 RMK A01 T00881057  RH  035%=      5-min Rain = 0
KHA2 092205Z 04006KT 09/M06 A3032 RMK A01 T00871059  RH  035%=      5-min Rain = 0
KHA2 092206Z 02006KT 09/M06 A3032 RMK A01 T00861061  RH  035%=      5-min Rain = 0
KHA2 092207Z 04005KT 09/M06 A3031 RMK A01 T00861058  RH  036%=      5-min Rain = 0
KHA2 092208Z 03006KT 09/M06 A3031 RMK A01 T00861056  RH  036%=      5-min Rain = 0
KHA2 092209Z 03006KT 09/M06 A3031 RMK A01 T00871059  RH  035%=      5-min Rain = 0
KHA2 092210Z 03006KT 09/M06 A3031 RMK A01 T00871055  RH  036%=      5-min Rain = 0
KHA2 092211Z 03005KT 09/M06 A3031 RMK A01 T00861057  RH  036%=      5-min Rain = 0
KHA2 092212Z 04005KT 09/M06 A3031 RMK A01 T00871057  RH  036%=      5-min Rain = 0
KHA2 092213Z 03007KT 09/M06 A3031 RMK A01 T00871055  RH  036%=      5-min Rain = 0
KHA2 092214Z 03005KT 09/M06 A3031 RMK A01 T00861059  RH  035%=      5-min Rain = 0
KHA2 092215Z 02004KT 09/M06 A3031 RMK A01 T00861063  RH  034%=      5-min Rain = 0
KHA2 092216Z 01003KT 09/M06 A3031 RMK A01 T00851063  RH  034%=      5-min Rain = 0
KHA2 092217Z 01003KT 09/M06 A3031 RMK A01 T00861064  RH  034%=      5-min Rain = 0
KHA2 092218Z 02002KT 09/M06 A3031 RMK A01 T00861061  RH  035%=      5-min Rain = 0
KHA2 092219Z 04002KT 09/M06 A3031 RMK A01 T00871060  RH  035%=      5-min Rain = 0
KHA2 092220Z 05004KT 09/M06 A3031 RMK A01 T00881059  RH  035%=      5-min Rain = 0
KHA2 092221Z 05004KT 09/M06 A3031 RMK A01 T00871059  RH  035%=      5-min Rain = 0
KHA2 092222Z 05003KT 09/M06 A3031 RMK A01 T00871060  RH  035%=      5-min Rain = 0
KHA2 092223Z 04002KT 09/M06 A3031 RMK A01 T00861063  RH  034%=      5-min Rain = 0
KHA2 092224Z 05002KT 09/M06 A3031 RMK A01 T00861063  RH  034%=      5-min Rain = 0
KHA2 092225Z 05002KT 09/M06 A3031 RMK A01 T00861062  RH  034%=      5-min Rain = 0
KHA2 092226Z 05003KT 09/M06 A3031 RMK A01 T00861060  RH  035%=      5-min Rain = 0
KHA2 092227Z 04004KT 09/M06 A3031 RMK A01 T00871059  RH  035%=      5-min Rain = 0
KHA2 092228Z 03004KT 09/M06 A3031 RMK A01 T00871058  RH  035%=      5-min Rain = 0
KHA2 092229Z 03003KT 09/M06 A3031 RMK A01 T00861058  RH  035%=      5-min Rain = 0
KHA2 092230Z 03005KT 09/M06 A3031 RMK A01 T00861057  RH  036%=      5-min Rain = 0
KHA2 092231Z 04005KT 09/M05 A3031 RMK A01 T00861051  RH  038%=      5-min Rain = 0
KHA2 092232Z 04004KT 09/M06 A3031 RMK A01 T00851055  RH  037%=      5-min Rain = 0
KHA2 092233Z 04004KT 09/M06 A3031 RMK A01 T00851056  RH  036%=      5-min Rain = 0
KHA2 092234Z 03002KT 09/M06 A3031 RMK A01 T00851058  RH  036%=      5-min Rain = 0
KHA2 092235Z 03002KT 09/M06 A3031 RMK A01 T00851060  RH  035%=      5-min Rain = 0
KHA2 092236Z 04003KT 09/M06 A3031 RMK A01 T00851055  RH  037%=      5-min Rain = 0
KHA2 092237Z 05003KT 09/M05 A3031 RMK A01 T00851053  RH  037%=      5-min Rain = 0
KHA2 092238Z 05002KT 09/M06 A3031 RMK A01 T00851061  RH  035%=      5-min Rain = 0
KHA2 092239Z 04001KT 09/M07 A3031 RMK A01 T00851065  RH  034%=      5-min Rain = 0
KHA2 092240Z 03002KT 09/M07 A3031 RMK A01 T00851067  RH  033%=      5-min Rain = 0
KHA2 092241Z 04002KT 09/M07 A3031 RMK A01 T00851065  RH  034%=      5-min Rain = 0
KHA2 092242Z 04002KT 09/M06 A3031 RMK A01 T00851063  RH  034%=      5-min Rain = 0
KHA2 092243Z 04003KT 09/M06 A3031 RMK A01 T00851059  RH  036%=      5-min Rain = 0
KHA2 092244Z 04003KT 09/M05 A3031 RMK A01 T00851051  RH  038%=      5-min Rain = 0
KHA2 092245Z 03005KT 08/M05 A3031 RMK A01 T00841048  RH  039%=      5-min Rain = 0
KHA2 092246Z 01004KT 08/M05 A3031 RMK A01 T00831047  RH  040%=      5-min Rain = 0
KHA2 092247Z 00004KT 08/M05 A3031 RMK A01 T00821049  RH  039%=      5-min Rain = 0
KHA2 092248Z 01003KT 08/M05 A3032 RMK A01 T00811050  RH  039%=      5-min Rain = 0
KHA2 092249Z 36003KT 08/M04 A3032 RMK A01 T00811043  RH  041%=      5-min Rain = 0
KHA2 092250Z 35003KT 08/M04 A3032 RMK A01 T00801042  RH  042%=      5-min Rain = 0
KHA2 092251Z 35003KT 08/M04 A3032 RMK A01 T00801041  RH  042%=      5-min Rain = 0
KHA2 092252Z 36003KT 08/M04 A3032 RMK A01 T00801042  RH  042%=      5-min Rain = 0
KHA2 092253Z 00004KT 08/M04 A3032 RMK A01 T00801043  RH  041%=      5-min Rain = 0
KHA2 092254Z 00004KT 08/M04 A3032 RMK A01 T00791044  RH  041%=      5-min Rain = 0
KHA2 092255Z 01003KT 08/M05 A3032 RMK A01 T00791045  RH  041%=      5-min Rain = 0
KHA2 092256Z 01003KT 08/M04 A3032 RMK A01 T00791043  RH  042%=      5-min Rain = 0
KHA2 092257Z 01003KT 08/M04 A3032 RMK A01 T00781043  RH  042%=      5-min Rain = 0
KHA2 092258Z 02004KT 08/M04 A3032 RMK A01 T00771040  RH  043%=      5-min Rain = 0
KHA2 092259Z 02004KT 08/M04 A3032 RMK A01 T00771043  RH  042%=      5-min Rain = 0
KHA2 092300Z 02004KT 08/M04 A3032 RMK A01 T00761044  RH  042%=      5-min Rain = 0
KHA2 092301Z 03004KT 08/M04 A3032 RMK A01 T00751044  RH  042%=      5-min Rain = 0
KHA2 092302Z 03005KT 07/M04 A3032 RMK A01 T00741044  RH  043%=      5-min Rain = 0
KHA2 092303Z 02005KT 07/M04 A3032 RMK A01 T00731042  RH  044%=      5-min Rain = 0
KHA2 092304Z 03004KT 07/M04 A3032 RMK A01 T00721043  RH  044%=      5-min Rain = 0
KHA2 092305Z 02004KT 07/M04 A3032 RMK A01 T00711043  RH  044%=      5-min Rain = 0
KHA2 092306Z 02004KT 07/M04 A3032 RMK A01 T00701041  RH  045%=      5-min Rain = 0
KHA2 092307Z 02004KT 07/M04 A3032 RMK A01 T00691041  RH  045%=      5-min Rain = 0
KHA2 092308Z 02004KT 07/M04 A3032 RMK A01 T00681043  RH  045%=      5-min Rain = 0
KHA2 092309Z 03004KT 07/M05 A3032 RMK A01 T00681048  RH  043%=      5-min Rain = 0
KHA2 092310Z 03005KT 07/M05 A3032 RMK A01 T00691049  RH  043%=      5-min Rain = 0
KHA2 092311Z 03005KT 07/M05 A3032 RMK A01 T00691049  RH  043%=      5-min Rain = 0
KHA2 092312Z 03004KT 07/M05 A3032 RMK A01 T00691047  RH  043%=      5-min Rain = 0
KHA2 092313Z 03004KT 07/M05 A3032 RMK A01 T00681048  RH  043%=      5-min Rain = 0
KHA2 092314Z 03005KT 07/M05 A3032 RMK A01 T00681048  RH  043%=      5-min Rain = 0
KHA2 092315Z 04004KT 07/M05 A3032 RMK A01 T00671047  RH  044%=      5-min Rain = 0
KHA2 092316Z 04004KT 07/M05 A3032 RMK A01 T00661047  RH  044%=      5-min Rain = 0
KHA2 092317Z 03004KT 07/M05 A3032 RMK A01 T00651050  RH  043%=      5-min Rain = 0
KHA2 092318Z 03004KT 07/M05 A3032 RMK A01 T00651050  RH  044%=      5-min Rain = 0
KHA2 092319Z 03004KT 07/M05 A3032 RMK A01 T00651047  RH  045%=      5-min Rain = 0
KHA2 092320Z 03004KT 06/M05 A3032 RMK A01 T00641047  RH  045%=      5-min Rain = 0
KHA2 092321Z 02004KT 06/M04 A3032 RMK A01 T00631044  RH  046%=      5-min Rain = 0
KHA2 092322Z 03004KT 06/M05 A3032 RMK A01 T00601046  RH  047%=      5-min Rain = 0
KHA2 092323Z 03004KT 06/M04 A3032 RMK A01 T00591042  RH  048%=      5-min Rain = 0
KHA2 092324Z 03004KT 06/M05 A3032 RMK A01 T00581046  RH  047%=      5-min Rain = 0
KHA2 092325Z 03003KT 06/M05 A3032 RMK A01 T00581049  RH  046%=      5-min Rain = 0
KHA2 092326Z 03004KT 06/M05 A3032 RMK A01 T00581050  RH  046%=      5-min Rain = 0
KHA2 092327Z 02004KT 06/M04 A3032 RMK A01 T00581044  RH  048%=      5-min Rain = 0
KHA2 092328Z 02004KT 06/M05 A3032 RMK A01 T00581048  RH  047%=      5-min Rain = 0
KHA2 092329Z 02004KT 06/M05 A3032 RMK A01 T00571049  RH  046%=      5-min Rain = 0
KHA2 092330Z 02004KT 06/M05 A3032 RMK A01 T00571046  RH  048%=      5-min Rain = 0
KHA2 092331Z 02004KT 06/M05 A3032 RMK A01 T00561046  RH  048%=      5-min Rain = 0
KHA2 092332Z 02004KT 06/M05 A3032 RMK A01 T00561048  RH  047%=      5-min Rain = 0
KHA2 092333Z 02004KT 06/M05 A3032 RMK A01 T00561048  RH  047%=      5-min Rain = 0
KHA2 092334Z 02004KT 06/M05 A3032 RMK A01 T00561049  RH  047%=      5-min Rain = 0
KHA2 092335Z 02004KT 06/M05 A3032 RMK A01 T00571048  RH  047%=      5-min Rain = 0
KHA2 092336Z 02004KT 06/M05 A3032 RMK A01 T00571047  RH  047%=      5-min Rain = 0
KHA2 092337Z 02004KT 06/M05 A3032 RMK A01 T00571046  RH  048%=      5-min Rain = 0
KHA2 092338Z 02003KT 06/M05 A3032 RMK A01 T00571047  RH  047%=      5-min Rain = 0
KHA2 092339Z 03003KT 06/M05 A3032 RMK A01 T00571048  RH  047%=      5-min Rain = 0
KHA2 092340Z 03003KT 06/M05 A3032 RMK A01 T00571047  RH  047%=      5-min Rain = 0
KHA2 092341Z 03003KT 06/M05 A3032 RMK A01 T00571047  RH  047%=      5-min Rain = 0
KHA2 092342Z 03003KT 06/M05 A3032 RMK A01 T00571046  RH  048%=      5-min Rain = 0
KHA2 092343Z 03003KT 06/M05 A3032 RMK A01 T00571045  RH  048%=      5-min Rain = 0
KHA2 092344Z 04003KT 06/M04 A3032 RMK A01 T00561044  RH  049%=      5-min Rain = 0
KHA2 092345Z 04003KT 06/M04 A3032 RMK A01 T00551043  RH  049%=      5-min Rain = 0
KHA2 092346Z 06003KT 05/M04 A3032 RMK A01 T00531040  RH  051%=      5-min Rain = 0
KHA2 092347Z 07004KT 05/M04 A3032 RMK A01 T00511036  RH  053%=      5-min Rain = 0
KHA2 092348Z 06004KT 05/M04 A3032 RMK A01 T00491038  RH  053%=      5-min Rain = 0
KHA2 092349Z 05004KT 05/M04 A3033 RMK A01 T00491037  RH  054%=      5-min Rain = 0
KHA2 092350Z 05004KT 05/M04 A3033 RMK A01 T00481043  RH  052%=      5-min Rain = 0
KHA2 092351Z 05004KT 05/M05 A3033 RMK A01 T00491045  RH  051%=      5-min Rain = 0
KHA2 092352Z 04004KT 05/M04 A3033 RMK A01 T00471041  RH  053%=      5-min Rain = 0
KHA2 092353Z 05004KT 05/M04 A3033 RMK A01 T00451043  RH  053%=      5-min Rain = 0
KHA2 092354Z 05004KT 04/M05 A3033 RMK A01 T00441048  RH  051%=      5-min Rain = 0
KHA2 092355Z 05003KT 04/M05 A3033 RMK A01 T00441050  RH  050%=      5-min Rain = 0
KHA2 092356Z 05004KT 05/M05 A3033 RMK A01 T00451050  RH  050%=      5-min Rain = 0
KHA2 092357Z 05004KT 04/M05 A3033 RMK A01 T00441048  RH  051%=      5-min Rain = 0
KHA2 092358Z 04004KT 04/M05 A3033 RMK A01 T00431048  RH  052%=      5-min Rain = 0
KHA2 092359Z 04004KT 04/M05 A3033 RMK A01 T00411048  RH  052%=      5-min Rain = 0
KHA2 100000Z 05004KT 04/M05 A3033 RMK A01 T00401049  RH  052%=      5-min Rain = 0
KHA2 100001Z 05003KT 04/M05 A3033 RMK A01 T00401053  RH  051%=      5-min Rain = 0
KHA2 100002Z 05003KT 04/M05 A3033 RMK A01 T00421054  RH  050%=      5-min Rain = 0
KHA2 100003Z 04003KT 04/M05 A3033 RMK A01 T00431054  RH  049%=      5-min Rain = 0
KHA2 100004Z 04003KT 04/M05 A3033 RMK A01 T00441054  RH  049%=      5-min Rain = 0
KHA2 100005Z 03004KT 05/M05 A3033 RMK A01 T00451054  RH  049%=      5-min Rain = 0
KHA2 100006Z 03004KT 05/M05 A3033 RMK A01 T00451050  RH  050%=      5-min Rain = 0
KHA2 100007Z 03004KT 04/M05 A3034 RMK A01 T00441048  RH  051%=      5-min Rain = 0
KHA2 100008Z 02004KT 04/M05 A3034 RMK A01 T00431048  RH  052%=      5-min Rain = 0
KHA2 100009Z 02003KT 04/M05 A3034 RMK A01 T00441048  RH  051%=      5-min Rain = 0
KHA2 100010Z 02003KT 05/M05 A3034 RMK A01 T00451048  RH  051%=      5-min Rain = 0
KHA2 100011Z 02002KT 05/M05 A3034 RMK A01 T00461048  RH  050%=      5-min Rain = 0
KHA2 100012Z 02002KT 05/M05 A3034 RMK A01 T00471048  RH  050%=      5-min Rain = 0
KHA2 100013Z 01002KT 05/M05 A3034 RMK A01 T00471048  RH  050%=      5-min Rain = 0
KHA2 100014Z 02002KT 05/M05 A3034 RMK A01 T00471048  RH  050%=      5-min Rain = 0
KHA2 100015Z 02002KT 05/M05 A3034 RMK A01 T00471047  RH  051%=      5-min Rain = 0
KHA2 100016Z 02002KT 05/M05 A3034 RMK A01 T00471046  RH  051%=      5-min Rain = 0
KHA2 100017Z 02002KT 05/M05 A3034 RMK A01 T00471046  RH  051%=      5-min Rain = 0
KHA2 100018Z 02002KT 05/M05 A3034 RMK A01 T00471047  RH  051%=      5-min Rain = 0
KHA2 100019Z 02002KT 05/M05 A3034 RMK A01 T00461046  RH  051%=      5-min Rain = 0
KHA2 100020Z 01002KT 05/M05 A3034 RMK A01 T00461046  RH  051%=      5-min Rain = 0
KHA2 100021Z 01002KT 05/M05 A3034 RMK A01 T00471045  RH  052%=      5-min Rain = 0
KHA2 100022Z 01002KT 05/M05 A3034 RMK A01 T00461046  RH  051%=      5-min Rain = 0
KHA2 100023Z 01002KT 04/M05 A3034 RMK A01 T00441049  RH  051%=      5-min Rain = 0
KHA2 100024Z 01002KT 04/M05 A3034 RMK A01 T00431050  RH  051%=      5-min Rain = 0
KHA2 100025Z 01002KT 04/M05 A3034 RMK A01 T00411051  RH  051%=      5-min Rain = 0
KHA2 100026Z 02002KT 04/M05 A3034 RMK A01 T00401050  RH  052%=      5-min Rain = 0
KHA2 100027Z 02002KT 04/M05 A3034 RMK A01 T00381050  RH  052%=      5-min Rain = 0
KHA2 100028Z 02002KT 04/M05 A3034 RMK A01 T00371051  RH  053%=      5-min Rain = 0
KHA2 100029Z 02002KT 04/M05 A3034 RMK A01 T00361051  RH  053%=      5-min Rain = 0
KHA2 100030Z 02001KT 04/M05 A3034 RMK A01 T00361051  RH  053%=      5-min Rain = 0
KHA2 100031Z 02001KT 04/M05 A3034 RMK A01 T00361052  RH  053%=      5-min Rain = 0
KHA2 100032Z 01001KT 04/M05 A3034 RMK A01 T00361052  RH  053%=      5-min Rain = 0
KHA2 100033Z 01001KT 04/M05 A3034 RMK A01 T00361052  RH  052%=      5-min Rain = 0
KHA2 100034Z 01001KT 04/M05 A3035 RMK A01 T00371052  RH  052%=      5-min Rain = 0
KHA2 100035Z 01001KT 04/M05 A3035 RMK A01 T00371053  RH  052%=      5-min Rain = 0
KHA2 100036Z 01001KT 04/M05 A3035 RMK A01 T00381053  RH  051%=      5-min Rain = 0
KHA2 100037Z 01001KT 04/M05 A3035 RMK A01 T00381054  RH  051%=      5-min Rain = 0
KHA2 100038Z 36001KT 04/M05 A3035 RMK A01 T00391054  RH  051%=      5-min Rain = 0
KHA2 100039Z 35001KT 04/M06 A3035 RMK A01 T00391055  RH  051%=      5-min Rain = 0
KHA2 100040Z 35001KT 04/M05 A3035 RMK A01 T00391054  RH  051%=      5-min Rain = 0
KHA2 100041Z 35001KT 04/M05 A3035 RMK A01 T00381053  RH  051%=      5-min Rain = 0
KHA2 100042Z 34001KT 04/M05 A3035 RMK A01 T00371053  RH  052%=      5-min Rain = 0
KHA2 100043Z 34001KT 04/M05 A3035 RMK A01 T00361052  RH  052%=      5-min Rain = 0
KHA2 100044Z 34001KT 04/M05 A3035 RMK A01 T00351053  RH  052%=      5-min Rain = 0
KHA2 100045Z 34001KT 03/M05 A3035 RMK A01 T00341054  RH  052%=      5-min Rain = 0
KHA2 100046Z 34001KT 04/M05 A3035 RMK A01 T00351054  RH  052%=      5-min Rain = 0
KHA2 100047Z 34001KT 03/M05 A3035 RMK A01 T00341053  RH  053%=      5-min Rain = 0
KHA2 100048Z 34001KT 03/M05 A3035 RMK A01 T00341052  RH  053%=      5-min Rain = 0
KHA2 100049Z 34001KT 03/M05 A3035 RMK A01 T00331050  RH  054%=      5-min Rain = 0
KHA2 100050Z 34001KT 03/M05 A3035 RMK A01 T00331050  RH  054%=      5-min Rain = 0
KHA2 100051Z 34001KT 03/M05 A3035 RMK A01 T00331049  RH  055%=      5-min Rain = 0
KHA2 100052Z 35001KT 03/M05 A3035 RMK A01 T00331048  RH  055%=      5-min Rain = 0
KHA2 100053Z 34002KT 03/M05 A3035 RMK A01 T00331048  RH  055%=      5-min Rain = 0
KHA2 100054Z 34002KT 03/M05 A3035 RMK A01 T00331048  RH  055%=      5-min Rain = 0
KHA2 100055Z 33002KT 03/M05 A3035 RMK A01 T00331048  RH  055%=      5-min Rain = 0
KHA2 100056Z 33002KT 03/M05 A3035 RMK A01 T00331048  RH  055%=      5-min Rain = 0
KHA2 100057Z 33002KT 03/M05 A3035 RMK A01 T00321048  RH  056%=      5-min Rain = 0
KHA2 100058Z 33002KT 03/M05 A3035 RMK A01 T00331048  RH  055%=      5-min Rain = 0
KHA2 100059Z 34002KT 03/M05 A3035 RMK A01 T00321048  RH  055%=      5-min Rain = 0
KHA2 100100Z 34002KT 03/M05 A3035 RMK A01 T00321048  RH  056%=      5-min Rain = 0
KHA2 100101Z 34002KT 03/M05 A3035 RMK A01 T00321049  RH  056%=      5-min Rain = 0
KHA2 100102Z 34002KT 03/M05 A3035 RMK A01 T00311050  RH  055%=      5-min Rain = 0
KHA2 100103Z 34002KT 03/M05 A3035 RMK A01 T00301051  RH  055%=      5-min Rain = 0
KHA2 100104Z 34002KT 03/M05 A3035 RMK A01 T00301051  RH  055%=      5-min Rain = 0
KHA2 100105Z 34003KT 03/M05 A3035 RMK A01 T00291051  RH  056%=      5-min Rain = 0
KHA2 100106Z 34003KT 03/M05 A3035 RMK A01 T00291051  RH  056%=      5-min Rain = 0
KHA2 100107Z 34003KT 03/M05 A3035 RMK A01 T00281051  RH  056%=      5-min Rain = 0
KHA2 100108Z 34003KT 03/M05 A3035 RMK A01 T00281051  RH  056%=      5-min Rain = 0
KHA2 100109Z 35003KT 03/M05 A3035 RMK A01 T00281051  RH  056%=      5-min Rain = 0
KHA2 100110Z 34003KT 03/M05 A3035 RMK A01 T00281051  RH  056%=      5-min Rain = 0
KHA2 100111Z 34003KT 03/M05 A3035 RMK A01 T00271051  RH  056%=      5-min Rain = 0
KHA2 100112Z 34003KT 03/M05 A3035 RMK A01 T00271051  RH  056%=      5-min Rain = 0
KHA2 100113Z 34003KT 03/M05 A3035 RMK A01 T00261051  RH  057%=      5-min Rain = 0
KHA2 100114Z 34003KT 02/M05 A3035 RMK A01 T00241052  RH  057%=      5-min Rain = 0
KHA2 100115Z 35002KT 02/M05 A3035 RMK A01 T00221052  RH  058%=      5-min Rain = 0
KHA2 100116Z 35002KT 02/M05 A3035 RMK A01 T00201053  RH  059%=      5-min Rain = 0
KHA2 100117Z 35002KT 02/M05 A3035 RMK A01 T00181053  RH  059%=      5-min Rain = 0
KHA2 100118Z 35003KT 02/M05 A3035 RMK A01 T00181053  RH  059%=      5-min Rain = 0
KHA2 100119Z 35003KT 02/M05 A3035 RMK A01 T00191053  RH  059%=      5-min Rain = 0
KHA2 100120Z 35003KT 02/M05 A3035 RMK A01 T00201054  RH  058%=      5-min Rain = 0
KHA2 100121Z 35003KT 02/M05 A3035 RMK A01 T00211054  RH  058%=      5-min Rain = 0
KHA2 100122Z 35003KT 02/M05 A3035 RMK A01 T00211054  RH  058%=      5-min Rain = 0
KHA2 100123Z 35003KT 02/M05 A3035 RMK A01 T00211054  RH  058%=      5-min Rain = 0
KHA2 100124Z 34003KT 02/M05 A3035 RMK A01 T00211054  RH  057%=      5-min Rain = 0
KHA2 100125Z 34003KT 02/M05 A3035 RMK A01 T00201054  RH  058%=      5-min Rain = 0
KHA2 100126Z 34004KT 02/M06 A3035 RMK A01 T00181055  RH  058%=      5-min Rain = 0
KHA2 100127Z 34004KT 02/M05 A3035 RMK A01 T00181054  RH  059%=      5-min Rain = 0
KHA2 100128Z 35004KT 02/M05 A3035 RMK A01 T00161054  RH  060%=      5-min Rain = 0
KHA2 100129Z 35004KT 02/M05 A3035 RMK A01 T00151054  RH  060%=      5-min Rain = 0
KHA2 100130Z 35004KT 01/M05 A3035 RMK A01 T00141054  RH  060%=      5-min Rain = 0
KHA2 100131Z 35004KT 01/M05 A3035 RMK A01 T00141054  RH  060%=      5-min Rain = 0
KHA2 100132Z 35004KT 01/M06 A3036 RMK A01 T00141055  RH  060%=      5-min Rain = 0
KHA2 100133Z 35005KT 01/M06 A3036 RMK A01 T00141055  RH  060%=      5-min Rain = 0
KHA2 100134Z 35005KT 01/M05 A3036 RMK A01 T00131054  RH  061%=      5-min Rain = 0
KHA2 100135Z 34005KT 01/M05 A3036 RMK A01 T00121054  RH  061%=      5-min Rain = 0
KHA2 100136Z 34005KT 01/M06 A3036 RMK A01 T00111055  RH  062%=      5-min Rain = 0
KHA2 100137Z 34006KT 01/M06 A3036 RMK A01 T00091055  RH  062%=      5-min Rain = 0
KHA2 100138Z 34006KT 01/M06 A3036 RMK A01 T00071055  RH  063%=      5-min Rain = 0
KHA2 100139Z 34006KT 01/M06 A3036 RMK A01 T00051055  RH  064%=      5-min Rain = 0
KHA2 100140Z 34006KT 00/M06 A3036 RMK A01 T00031055  RH  065%=      5-min Rain = 0
KHA2 100141Z 35006KT 00/M06 A3036 RMK A01 T00021055  RH  066%=      5-min Rain = 0
KHA2 100142Z 35006KT 00/06 A3036 RMK A01 T00-00-55  RH  066%=      5-min Rain = 0
KHA2 100143Z 35007KT M00/M06 A3036 RMK A01 T10011056  RH  067%=      5-min Rain = 0
KHA2 100144Z 35007KT M00/M06 A3036 RMK A01 T10011056  RH  066%=      5-min Rain = 0
KHA2 100145Z 35006KT M00/M06 A3036 RMK A01 T10011056  RH  066%=      5-min Rain = 0
KHA2 100146Z 35006KT M00/M06 A3036 RMK A01 T10021056  RH  067%=      5-min Rain = 0
KHA2 100147Z 36006KT M00/M06 A3036 RMK A01 T10031056  RH  068%=      5-min Rain = 0
KHA2 100148Z 35005KT M00/M06 A3036 RMK A01 T10041056  RH  068%=      5-min Rain = 0
KHA2 100149Z 35005KT M00/M06 A3036 RMK A01 T10041057  RH  068%=      5-min Rain = 0
KHA2 100150Z 35005KT M00/M06 A3036 RMK A01 T10041057  RH  067%=      5-min Rain = 0
KHA2 100151Z 34005KT M00/M06 A3036 RMK A01 T10031057  RH  067%=      5-min Rain = 0
KHA2 100152Z 34005KT M00/M06 A3036 RMK A01 T10021058  RH  066%=      5-min Rain = 0
KHA2 100153Z 34005KT M00/M06 A3036 RMK A01 T10011058  RH  065%=      5-min Rain = 0
KHA2 100154Z 34005KT 00/M06 A3036 RMK A01 T00021058  RH  064%=      5-min Rain = 0
KHA2 100155Z 34005KT 00/M06 A3036 RMK A01 T00041058  RH  063%=      5-min Rain = 0
KHA2 100156Z 34005KT 01/M06 A3036 RMK A01 T00051059  RH  062%=      5-min Rain = 0
KHA2 100157Z 33005KT 01/M06 A3036 RMK A01 T00051059  RH  062%=      5-min Rain = 0
KHA2 100158Z 33005KT 01/M06 A3036 RMK A01 T00051059  RH  062%=      5-min Rain = 0
KHA2 100159Z 33005KT 01/M06 A3036 RMK A01 T00051060  RH  062%=      5-min Rain = 0
KHA2 100200Z 33005KT 01/M06 A3036 RMK A01 T00051060  RH  062%=      5-min Rain = 0
KHA2 100201Z 33005KT 01/M06 A3036 RMK A01 T00061060  RH  062%=      5-min Rain = 0
KHA2 100202Z 32005KT 01/M06 A3036 RMK A01 T00071059  RH  061%=      5-min Rain = 0
KHA2 100203Z 32005KT 01/M06 A3036 RMK A01 T00061060  RH  061%=      5-min Rain = 0
KHA2 100204Z 33005KT 01/M06 A3036 RMK A01 T00061059  RH  062%=      5-min Rain = 0
KHA2 100205Z 33004KT 01/M06 A3036 RMK A01 T00061059  RH  062%=      5-min Rain = 0
KHA2 100206Z 33004KT 01/M06 A3036 RMK A01 T00061059  RH  062%=      5-min Rain = 0
KHA2 100207Z 33004KT 01/M06 A3036 RMK A01 T00061060  RH  062%=      5-min Rain = 0
KHA2 100208Z 33004KT 01/M06 A3036 RMK A01 T00071061  RH  061%=      5-min Rain = 0
KHA2 100209Z 34004KT 01/M06 A3036 RMK A01 T00081062  RH  059%=      5-min Rain = 0
KHA2 100210Z 34004KT 01/M06 A3036 RMK A01 T00101063  RH  058%=      5-min Rain = 0
KHA2 100211Z 34004KT 01/M06 A3036 RMK A01 T00111063  RH  058%=      5-min Rain = 0
KHA2 100212Z 34004KT 01/M06 A3036 RMK A01 T00121063  RH  057%=      5-min Rain = 0
KHA2 100213Z 33005KT 01/M06 A3036 RMK A01 T00131064  RH  057%=      5-min Rain = 0
KHA2 100214Z 33005KT 01/M06 A3036 RMK A01 T00131064  RH  057%=      5-min Rain = 0
KHA2 100215Z 33005KT 01/M06 A3036 RMK A01 T00131064  RH  057%=      5-min Rain = 0
KHA2 100216Z 33004KT 01/M06 A3036 RMK A01 T00131064  RH  056%=      5-min Rain = 0
KHA2 100217Z 33004KT 01/M06 A3036 RMK A01 T00141064  RH  056%=      5-min Rain = 0
KHA2 100218Z 32004KT 01/M06 A3036 RMK A01 T00141064  RH  056%=      5-min Rain = 0
KHA2 100219Z 29002KT 01/M07 A3036 RMK A01 T00091065  RH  058%=      5-min Rain = 0
KHA2 100220Z 20002KT 00/M07 A3036 RMK A01 T00021068  RH  059%=      5-min Rain = 0
KHA2 100221Z 18004KT M00/M07 A3036 RMK A01 T10031069  RH  061%=      5-min Rain = 0
KHA2 100222Z 18002KT M01/M07 A3036 RMK A01 T10121072  RH  063%=      5-min Rain = 0
KHA2 100223Z 18003KT M02/M07 A3036 RMK A01 T10171071  RH  066%=      5-min Rain = 0
KHA2 100224Z 18004KT M02/M07 A3036 RMK A01 T10181068  RH  069%=      5-min Rain = 0
KHA2 100225Z 18004KT M02/M07 A3036 RMK A01 T10191066  RH  070%=      5-min Rain = 0
KHA2 100226Z 18005KT M02/M07 A3036 RMK A01 T10191065  RH  070%=      5-min Rain = 0
KHA2 100227Z 19005KT M02/M07 A3036 RMK A01 T10191065  RH  071%=      5-min Rain = 0
KHA2 100228Z 19004KT M02/M07 A3036 RMK A01 T10201065  RH  071%=      5-min Rain = 0
KHA2 100229Z 19004KT M02/M06 A3036 RMK A01 T10211064  RH  072%=      5-min Rain = 0
KHA2 100230Z 19005KT M02/M06 A3036 RMK A01 T10211063  RH  073%=      5-min Rain = 0
KHA2 100231Z 19005KT M02/M06 A3036 RMK A01 T10211064  RH  073%=      5-min Rain = 0
KHA2 100232Z 20004KT M02/M06 A3036 RMK A01 T10201063  RH  072%=      5-min Rain = 0
KHA2 100233Z 21004KT M02/M06 A3036 RMK A01 T10201064  RH  072%=      5-min Rain = 0
KHA2 100234Z 21004KT M02/M06 A3036 RMK A01 T10191063  RH  072%=      5-min Rain = 0
KHA2 100235Z 21004KT M02/M06 A3036 RMK A01 T10191063  RH  072%=      5-min Rain = 0
KHA2 100236Z 22004KT M02/M06 A3036 RMK A01 T10201063  RH  073%=      5-min Rain = 0
KHA2 100237Z 23004KT M02/M06 A3036 RMK A01 T10211062  RH  073%=      5-min Rain = 0
KHA2 100238Z 24005KT M02/M06 A3037 RMK A01 T10221062  RH  074%=      5-min Rain = 0
KHA2 100239Z 24005KT M02/M06 A3037 RMK A01 T10221061  RH  075%=      5-min Rain = 0
KHA2 100240Z 24005KT M02/M06 A3037 RMK A01 T10231061  RH  075%=      5-min Rain = 0
KHA2 100241Z 24004KT M02/M06 A3037 RMK A01 T10221061  RH  075%=      5-min Rain = 0
KHA2 100242Z 24005KT M02/M06 A3037 RMK A01 T10221060  RH  075%=      5-min Rain = 0
KHA2 100243Z 24005KT M02/M06 A3037 RMK A01 T10221060  RH  075%=      5-min Rain = 0
KHA2 100244Z 24005KT M02/M06 A3037 RMK A01 T10221059  RH  075%=      5-min Rain = 0
KHA2 100245Z 25005KT M02/M06 A3037 RMK A01 T10221060  RH  075%=      5-min Rain = 0
KHA2 100246Z 25004KT M02/M06 A3037 RMK A01 T10211060  RH  075%=      5-min Rain = 0
KHA2 100247Z 26004KT M02/M06 A3037 RMK A01 T10211060  RH  075%=      5-min Rain = 0
KHA2 100248Z 27003KT M02/M06 A3037 RMK A01 T10211060  RH  074%=      5-min Rain = 0
KHA2 100249Z 28003KT M02/M06 A3037 RMK A01 T10211060  RH  075%=      5-min Rain = 0
KHA2 100250Z 27003KT M02/M06 A3037 RMK A01 T10211060  RH  075%=      5-min Rain = 0
KHA2 100251Z 28003KT M02/M06 A3037 RMK A01 T10221060  RH  075%=      5-min Rain = 0
KHA2 100252Z 29003KT M02/M06 A3037 RMK A01 T10221060  RH  075%=      5-min Rain = 0
KHA2 100253Z 28003KT M02/M06 A3037 RMK A01 T10211060  RH  075%=      5-min Rain = 0
KHA2 100254Z 28003KT M02/M06 A3037 RMK A01 T10221059  RH  075%=      5-min Rain = 0
KHA2 100255Z 29003KT M02/M06 A3037 RMK A01 T10231060  RH  076%=      5-min Rain = 0
KHA2 100256Z 30003KT M02/M06 A3037 RMK A01 T10231060  RH  076%=      5-min Rain = 0
KHA2 100257Z 29003KT M02/M06 A3037 RMK A01 T10231061  RH  075%=      5-min Rain = 0
KHA2 100258Z 29003KT M02/M06 A3037 RMK A01 T10231061  RH  075%=      5-min Rain = 0
KHA2 100259Z 30003KT M02/M06 A3037 RMK A01 T10231061  RH  075%=      5-min Rain = 0
KHA2 100300Z 30003KT M02/M06 A3037 RMK A01 T10231061  RH  075%=      5-min Rain = 0
KHA2 100301Z 29003KT M02/M06 A3037 RMK A01 T10241062  RH  075%=      5-min Rain = 0
KHA2 100302Z 30003KT M03/M06 A3037 RMK A01 T10251063  RH  075%=      5-min Rain = 0
KHA2 100303Z 30003KT M03/M06 A3037 RMK A01 T10251064  RH  075%=      5-min Rain = 0
KHA2 100304Z 31003KT M03/M06 A3037 RMK A01 T10251064  RH  074%=      5-min Rain = 0
KHA2 100305Z 31003KT M03/M07 A3037 RMK A01 T10261065  RH  074%=      5-min Rain = 0
KHA2 100306Z 32003KT M03/M07 A3037 RMK A01 T10261066  RH  074%=      5-min Rain = 0
KHA2 100307Z 34004KT M03/M07 A3037 RMK A01 T10261065  RH  074%=      5-min Rain = 0
KHA2 100308Z 34005KT M03/M07 A3037 RMK A01 T10261065  RH  075%=      5-min Rain = 0
KHA2 100309Z 34005KT M03/M06 A3037 RMK A01 T10261064  RH  075%=      5-min Rain = 0
KHA2 100310Z 34004KT M03/M06 A3037 RMK A01 T10251063  RH  075%=      5-min Rain = 0
KHA2 100311Z 34004KT M02/M06 A3037 RMK A01 T10241062  RH  075%=      5-min Rain = 0
KHA2 100312Z 34004KT M02/M06 A3037 RMK A01 T10211062  RH  074%=      5-min Rain = 0
KHA2 100313Z 34004KT M02/M06 A3037 RMK A01 T10201062  RH  073%=      5-min Rain = 0
KHA2 100314Z 33004KT M02/M06 A3037 RMK A01 T10191062  RH  072%=      5-min Rain = 0
KHA2 100315Z 33004KT M02/M06 A3037 RMK A01 T10191064  RH  071%=      5-min Rain = 0
KHA2 100316Z 33004KT M02/M07 A3037 RMK A01 T10191066  RH  071%=      5-min Rain = 0
KHA2 100317Z 33003KT M02/M07 A3037 RMK A01 T10201066  RH  071%=      5-min Rain = 0
KHA2 100318Z 33004KT M02/M07 A3037 RMK A01 T10201066  RH  071%=      5-min Rain = 0
KHA2 100319Z 33004KT M02/M07 A3037 RMK A01 T10201066  RH  071%=      5-min Rain = 0
KHA2 100320Z 33004KT M02/M07 A3037 RMK A01 T10201065  RH  071%=      5-min Rain = 0
KHA2 100321Z 33004KT M02/M06 A3037 RMK A01 T10181064  RH  071%=      5-min Rain = 0
KHA2 100322Z 33003KT M02/M06 A3037 RMK A01 T10171064  RH  070%=      5-min Rain = 0
KHA2 100323Z 33003KT M02/M06 A3036 RMK A01 T10151064  RH  069%=      5-min Rain = 0
KHA2 100324Z 33003KT M01/M06 A3036 RMK A01 T10141064  RH  069%=      5-min Rain = 0
KHA2 100325Z 33003KT M01/M07 A3036 RMK A01 T10121065  RH  068%=      5-min Rain = 0
KHA2 100326Z 32003KT M01/M06 A3036 RMK A01 T10131064  RH  068%=      5-min Rain = 0
KHA2 100327Z 31003KT M02/M07 A3036 RMK A01 T10171065  RH  070%=      5-min Rain = 0
KHA2 100328Z 31003KT M02/M07 A3036 RMK A01 T10221067  RH  071%=      5-min Rain = 0
KHA2 100329Z 31003KT M03/M07 A3036 RMK A01 T10261069  RH  072%=      5-min Rain = 0
KHA2 100330Z 31003KT M02/M07 A3036 RMK A01 T10241066  RH  073%=      5-min Rain = 0
KHA2 100331Z 31003KT M02/M07 A3036 RMK A01 T10221066  RH  072%=      5-min Rain = 0
KHA2 100332Z 32003KT M02/M07 A3036 RMK A01 T10211067  RH  071%=      5-min Rain = 0
KHA2 100333Z 32004KT M02/M07 A3036 RMK A01 T10201068  RH  070%=      5-min Rain = 0
KHA2 100334Z 32004KT M02/M07 A3036 RMK A01 T10201068  RH  070%=      5-min Rain = 0
KHA2 100335Z 32004KT M02/M07 A3036 RMK A01 T10201067  RH  070%=      5-min Rain = 0
KHA2 100336Z 33005KT M02/M07 A3036 RMK A01 T10181065  RH  070%=      5-min Rain = 0
KHA2 100337Z 33005KT M02/M07 A3036 RMK A01 T10161065  RH  069%=      5-min Rain = 0
KHA2 100338Z 34006KT M01/M06 A3036 RMK A01 T10141064  RH  069%=      5-min Rain = 0
KHA2 100339Z 34006KT M01/M07 A3036 RMK A01 T10121065  RH  067%=      5-min Rain = 0
KHA2 100340Z 34007KT M01/M07 A3037 RMK A01 T10111065  RH  067%=      5-min Rain = 0
KHA2 100341Z 34007KT M01/M07 A3037 RMK A01 T10121066  RH  067%=      5-min Rain = 0
KHA2 100342Z 34007KT M02/M07 A3037 RMK A01 T10151067  RH  068%=      5-min Rain = 0
KHA2 100343Z 34007KT M02/M07 A3037 RMK A01 T10181068  RH  069%=      5-min Rain = 0
KHA2 100344Z 34007KT M02/M07 A3037 RMK A01 T10191067  RH  070%=      5-min Rain = 0
KHA2 100345Z 34008KT M02/M07 A3037 RMK A01 T10201066  RH  071%=      5-min Rain = 0
KHA2 100346Z 34008KT M02/M07 A3037 RMK A01 T10201065  RH  072%=      5-min Rain = 0
KHA2 100347Z 35008KT M02/M06 A3037 RMK A01 T10211064  RH  073%=      5-min Rain = 0
KHA2 100348Z 35008KT M02/M06 A3037 RMK A01 T10221063  RH  074%=      5-min Rain = 0
KHA2 100349Z 35007KT M02/M06 A3037 RMK A01 T10231063  RH  074%=      5-min Rain = 0
KHA2 100350Z 35007KT M02/M06 A3037 RMK A01 T10241063  RH  075%=      5-min Rain = 0
KHA2 100351Z 35007KT M03/M06 A3037 RMK A01 T10251062  RH  075%=      5-min Rain = 0
KHA2 100352Z 35007KT M03/M06 A3037 RMK A01 T10251062  RH  076%=      5-min Rain = 0
KHA2 100353Z 35007KT M03/M06 A3037 RMK A01 T10261062  RH  076%=      5-min Rain = 0
KHA2 100354Z 34006KT M03/M06 A3037 RMK A01 T10271063  RH  076%=      5-min Rain = 0
KHA2 100355Z 34006KT M03/M06 A3037 RMK A01 T10281063  RH  077%=      5-min Rain = 0
KHA2 100356Z 34006KT M03/M06 A3037 RMK A01 T10291063  RH  077%=      5-min Rain = 0
KHA2 100357Z 34006KT M03/M06 A3037 RMK A01 T10291064  RH  077%=      5-min Rain = 0
KHA2 100358Z 34006KT M03/M06 A3037 RMK A01 T10291064  RH  077%=      5-min Rain = 0
KHA2 100359Z 33005KT M03/M06 A3037 RMK A01 T10271064  RH  076%=      5-min Rain = 0
KHA2 100400Z 33006KT M03/M07 A3037 RMK A01 T10251065  RH  074%=      5-min Rain = 0
KHA2 100401Z 33006KT M02/M07 A3037 RMK A01 T10241065  RH  073%=      5-min Rain = 0
KHA2 100402Z 33006KT M02/M07 A3037 RMK A01 T10231065  RH  073%=      5-min Rain = 0
KHA2 100403Z 33006KT M02/M07 A3037 RMK A01 T10221066  RH  072%=      5-min Rain = 0
KHA2 100404Z 33006KT M02/M07 A3037 RMK A01 T10211066  RH  071%=      5-min Rain = 0
KHA2 100405Z 33006KT M02/M07 A3037 RMK A01 T10201066  RH  071%=      5-min Rain = 0
KHA2 100406Z 32006KT M02/M07 A3037 RMK A01 T10201067  RH  070%=      5-min Rain = 0
KHA2 100407Z 32006KT M02/M07 A3037 RMK A01 T10191066  RH  070%=      5-min Rain = 0
KHA2 100408Z 32006KT M02/M07 A3037 RMK A01 T10191066  RH  070%=      5-min Rain = 0
KHA2 100409Z 32006KT M02/M07 A3037 RMK A01 T10191066  RH  070%=      5-min Rain = 0
KHA2 100410Z 32006KT M02/M07 A3037 RMK A01 T10181065  RH  070%=      5-min Rain = 0
KHA2 100411Z 32007KT M02/M07 A3037 RMK A01 T10191065  RH  071%=      5-min Rain = 0
KHA2 100412Z 33006KT M02/M07 A3037 RMK A01 T10191065  RH  071%=      5-min Rain = 0
KHA2 100413Z 33006KT M02/M06 A3037 RMK A01 T10191064  RH  071%=      5-min Rain = 0
KHA2 100414Z 33006KT M02/M06 A3038 RMK A01 T10191064  RH  071%=      5-min Rain = 0
KHA2 100415Z 33007KT M02/M06 A3038 RMK A01 T10191064  RH  072%=      5-min Rain = 0
KHA2 100416Z 33007KT M02/M06 A3038 RMK A01 T10201064  RH  072%=      5-min Rain = 0
KHA2 100417Z 33007KT M02/M06 A3038 RMK A01 T10201064  RH  072%=      5-min Rain = 0
KHA2 100418Z 33007KT M02/M06 A3038 RMK A01 T10201064  RH  072%=      5-min Rain = 0
KHA2 100419Z 33007KT M02/M06 A3038 RMK A01 T10201064  RH  071%=      5-min Rain = 0
KHA2 100420Z 33007KT M02/M07 A3038 RMK A01 T10201065  RH  071%=      5-min Rain = 0
KHA2 100421Z 33007KT M02/M06 A3037 RMK A01 T10201064  RH  072%=      5-min Rain = 0
KHA2 100422Z 33007KT M02/M06 A3038 RMK A01 T10201064  RH  072%=      5-min Rain = 0
KHA2 100423Z 33007KT M02/M06 A3038 RMK A01 T10201064  RH  071%=      5-min Rain = 0
KHA2 100424Z 33007KT M02/M06 A3038 RMK A01 T10191064  RH  071%=      5-min Rain = 0
KHA2 100425Z 33007KT M02/M06 A3038 RMK A01 T10191064  RH  071%=      5-min Rain = 0
KHA2 100426Z 33006KT M02/M06 A3038 RMK A01 T10191064  RH  071%=      5-min Rain = 0
KHA2 100427Z 33006KT M02/M06 A3038 RMK A01 T10181064  RH  071%=      5-min Rain = 0
KHA2 100428Z 33006KT M02/M07 A3038 RMK A01 T10181065  RH  071%=      5-min Rain = 0
KHA2 100429Z 33006KT M02/M06 A3037 RMK A01 T10181064  RH  071%=      5-min Rain = 0
KHA2 100430Z 33006KT M02/M07 A3037 RMK A01 T10171065  RH  070%=      5-min Rain = 0
KHA2 100431Z 33006KT M02/M07 A3037 RMK A01 T10171065  RH  069%=      5-min Rain = 0
KHA2 100432Z 33006KT M02/M07 A3037 RMK A01 T10151066  RH  068%=      5-min Rain = 0
KHA2 100433Z 33006KT M01/M07 A3037 RMK A01 T10141066  RH  068%=      5-min Rain = 0
KHA2 100434Z 33006KT M01/M07 A3037 RMK A01 T10141067  RH  067%=      5-min Rain = 0
KHA2 100435Z 33006KT M01/M07 A3037 RMK A01 T10141067  RH  067%=      5-min Rain = 0
KHA2 100436Z 33005KT M01/M07 A3037 RMK A01 T10141067  RH  067%=      5-min Rain = 0
KHA2 100437Z 32005KT M01/M07 A3037 RMK A01 T10141066  RH  067%=      5-min Rain = 0
KHA2 100438Z 32005KT M01/M07 A3037 RMK A01 T10141067  RH  067%=      5-min Rain = 0
KHA2 100439Z 31005KT M01/M07 A3037 RMK A01 T10141067  RH  067%=      5-min Rain = 0
KHA2 100440Z 30005KT M01/M07 A3037 RMK A01 T10121067  RH  066%=      5-min Rain = 0
KHA2 100441Z 29005KT M01/M07 A3037 RMK A01 T10101067  RH  065%=      5-min Rain = 0
KHA2 100442Z 29005KT M01/M07 A3037 RMK A01 T10081067  RH  065%=      5-min Rain = 0
KHA2 100443Z 30005KT M01/M07 A3037 RMK A01 T10091067  RH  065%=      5-min Rain = 0
KHA2 100444Z 30005KT M01/M07 A3037 RMK A01 T10081069  RH  064%=      5-min Rain = 0
KHA2 100445Z 30005KT M01/M07 A3037 RMK A01 T10091069  RH  064%=      5-min Rain = 0
KHA2 100446Z 30005KT M01/M07 A3037 RMK A01 T10101069  RH  064%=      5-min Rain = 0
KHA2 100447Z 31005KT M01/M07 A3037 RMK A01 T10101069  RH  064%=      5-min Rain = 0
KHA2 100448Z 31004KT M01/M07 A3037 RMK A01 T10101068  RH  065%=      5-min Rain = 0
KHA2 100449Z 31004KT M01/M07 A3037 RMK A01 T10111068  RH  065%=      5-min Rain = 0
KHA2 100450Z 31004KT M01/M07 A3037 RMK A01 T10131069  RH  066%=      5-min Rain = 0
KHA2 100451Z 31004KT M01/M07 A3037 RMK A01 T10141068  RH  067%=      5-min Rain = 0
KHA2 100452Z 31004KT M02/M07 A3037 RMK A01 T10151068  RH  067%=      5-min Rain = 0
KHA2 100453Z 30004KT M02/M07 A3037 RMK A01 T10151067  RH  067%=      5-min Rain = 0
KHA2 100454Z 31005KT M02/M07 A3037 RMK A01 T10151067  RH  068%=      5-min Rain = 0
KHA2 100455Z 31005KT M01/M07 A3037 RMK A01 T10141067  RH  067%=      5-min Rain = 0
KHA2 100456Z 31005KT M01/M07 A3037 RMK A01 T10131068  RH  066%=      5-min Rain = 0
KHA2 100457Z 31004KT M01/M07 A3037 RMK A01 T10111067  RH  066%=      5-min Rain = 0
KHA2 100458Z 32005KT M01/M07 A3037 RMK A01 T10111068  RH  065%=      5-min Rain = 0
KHA2 100459Z 32005KT M01/M07 A3037 RMK A01 T10101068  RH  065%=      5-min Rain = 0
KHA2 100500Z 32005KT M01/M07 A3037 RMK A01 T10101068  RH  065%=      5-min Rain = 0
KHA2 100501Z 32004KT M01/M07 A3037 RMK A01 T10101069  RH  064%=      5-min Rain = 0
KHA2 100502Z 32005KT M01/M07 A3037 RMK A01 T10101070  RH  064%=      5-min Rain = 0
KHA2 100503Z 32004KT M01/M07 A3037 RMK A01 T10081071  RH  063%=      5-min Rain = 0
KHA2 100504Z 33004KT M01/M07 A3037 RMK A01 T10061072  RH  061%=      5-min Rain = 0
KHA2 100505Z 33004KT M00/M07 A3037 RMK A01 T10041072  RH  060%=      5-min Rain = 0
KHA2 100506Z 33004KT M00/M07 A3037 RMK A01 T10031073  RH  060%=      5-min Rain = 0
KHA2 100507Z 33004KT M00/M07 A3037 RMK A01 T10031073  RH  059%=      5-min Rain = 0
KHA2 100508Z 33004KT M00/M07 A3037 RMK A01 T10031073  RH  059%=      5-min Rain = 0
KHA2 100509Z 33004KT M00/M07 A3037 RMK A01 T10031074  RH  059%=      5-min Rain = 0
KHA2 100510Z 33004KT M00/M07 A3037 RMK A01 T10031073  RH  059%=      5-min Rain = 0
KHA2 100511Z 33004KT M00/M07 A3037 RMK A01 T10031073  RH  059%=      5-min Rain = 0
KHA2 100512Z 32004KT M00/M07 A3037 RMK A01 T10041073  RH  060%=      5-min Rain = 0
KHA2 100513Z 32004KT M01/M07 A3037 RMK A01 T10061072  RH  061%=      5-min Rain = 0
KHA2 100514Z 31004KT M01/M07 A3037 RMK A01 T10071072  RH  061%=      5-min Rain = 0
KHA2 100515Z 30004KT M01/M07 A3037 RMK A01 T10091072  RH  062%=      5-min Rain = 0
KHA2 100516Z 30004KT M01/M07 A3037 RMK A01 T10121071  RH  064%=      5-min Rain = 0
KHA2 100517Z 30005KT M01/M07 A3037 RMK A01 T10141069  RH  066%=      5-min Rain = 0
KHA2 100518Z 30004KT M02/M07 A3037 RMK A01 T10161070  RH  067%=      5-min Rain = 0
KHA2 100519Z 30004KT M02/M07 A3037 RMK A01 T10171069  RH  068%=      5-min Rain = 0
KHA2 100520Z 30004KT M02/M07 A3037 RMK A01 T10181068  RH  069%=      5-min Rain = 0
KHA2 100521Z 30004KT M02/M07 A3037 RMK A01 T10181066  RH  070%=      5-min Rain = 0
KHA2 100522Z 30004KT M02/M07 A3037 RMK A01 T10191067  RH  070%=      5-min Rain = 0
KHA2 100523Z 30004KT M02/M07 A3037 RMK A01 T10181067  RH  069%=      5-min Rain = 0
KHA2 100524Z 30004KT M02/M07 A3037 RMK A01 T10191067  RH  069%=      5-min Rain = 0
KHA2 100525Z 30004KT M02/M07 A3037 RMK A01 T10191067  RH  070%=      5-min Rain = 0
KHA2 100526Z 31004KT M02/M07 A3037 RMK A01 T10191067  RH  070%=      5-min Rain = 0
KHA2 100527Z 31005KT M02/M07 A3037 RMK A01 T10201067  RH  070%=      5-min Rain = 0
KHA2 100528Z 31005KT M02/M07 A3037 RMK A01 T10191067  RH  070%=      5-min Rain = 0
KHA2 100529Z 31005KT M02/M07 A3037 RMK A01 T10191068  RH  069%=      5-min Rain = 0
KHA2 100530Z 31006KT M02/M07 A3037 RMK A01 T10201070  RH  069%=      5-min Rain = 0
KHA2 100531Z 31006KT M02/M07 A3037 RMK A01 T10221071  RH  069%=      5-min Rain = 0
KHA2 100532Z 31006KT M02/M07 A3037 RMK A01 T10231072  RH  069%=      5-min Rain = 0
KHA2 100533Z 31006KT M02/M07 A3037 RMK A01 T10231072  RH  069%=      5-min Rain = 0
KHA2 100534Z 31006KT M02/M07 A3037 RMK A01 T10231072  RH  069%=      5-min Rain = 0
KHA2 100535Z 31006KT M02/M07 A3037 RMK A01 T10241072  RH  070%=      5-min Rain = 0
KHA2 100536Z 31006KT M03/M07 A3037 RMK A01 T10251071  RH  071%=      5-min Rain = 0
KHA2 100537Z 31006KT M03/M07 A3037 RMK A01 T10251070  RH  071%=      5-min Rain = 0
KHA2 100538Z 31006KT M03/M07 A3037 RMK A01 T10251069  RH  072%=      5-min Rain = 0
KHA2 100539Z 31006KT M03/M07 A3037 RMK A01 T10251069  RH  072%=      5-min Rain = 0
KHA2 100540Z 30006KT M03/M07 A3037 RMK A01 T10261069  RH  072%=      5-min Rain = 0
KHA2 100541Z 30006KT M03/M07 A3037 RMK A01 T10251068  RH  072%=      5-min Rain = 0
KHA2 100542Z 30006KT M02/M07 A3037 RMK A01 T10241068  RH  072%=      5-min Rain = 0
KHA2 100543Z 30006KT M02/M07 A3037 RMK A01 T10211068  RH  070%=      5-min Rain = 0
KHA2 100544Z 30006KT M02/M07 A3037 RMK A01 T10191068  RH  069%=      5-min Rain = 0
KHA2 100545Z 30006KT M02/M07 A3037 RMK A01 T10181068  RH  069%=      5-min Rain = 0
KHA2 100546Z 29006KT M02/M07 A3037 RMK A01 T10181068  RH  069%=      5-min Rain = 0
KHA2 100547Z 29005KT M02/M07 A3037 RMK A01 T10181067  RH  069%=      5-min Rain = 0
KHA2 100548Z 29005KT M02/M07 A3037 RMK A01 T10181068  RH  069%=      5-min Rain = 0
KHA2 100549Z 29005KT M02/M07 A3037 RMK A01 T10171067  RH  069%=      5-min Rain = 0
KHA2 100550Z 29006KT M02/M07 A3037 RMK A01 T10171066  RH  069%=      5-min Rain = 0
KHA2 100551Z 30006KT M02/M07 A3037 RMK A01 T10171066  RH  069%=      5-min Rain = 0
KHA2 100552Z 30006KT M02/M07 A3037 RMK A01 T10171067  RH  069%=      5-min Rain = 0
KHA2 100553Z 30005KT M02/M07 A3037 RMK A01 T10171067  RH  069%=      5-min Rain = 0
KHA2 100554Z 30006KT M02/M07 A3037 RMK A01 T10171068  RH  069%=      5-min Rain = 0
KHA2 100555Z 30006KT M02/M07 A3037 RMK A01 T10181067  RH  069%=      5-min Rain = 0
KHA2 100556Z 30006KT M02/M07 A3037 RMK A01 T10171068  RH  068%=      5-min Rain = 0
KHA2 100557Z 29006KT M02/M07 A3037 RMK A01 T10171068  RH  068%=      5-min Rain = 0
KHA2 100558Z 29005KT M02/M07 A3037 RMK A01 T10191069  RH  069%=      5-min Rain = 0
KHA2 100559Z 29005KT M02/M07 A3037 RMK A01 T10191069  RH  069%=      5-min Rain = 0

Page generated in 0.1846 seconds.